Wetterdaten: Dienstag, 10.07.2018
Datum Zeit Temp. Aussen Temp. o. S. +5cm Feuchte Auss Luftdruck Regen Sonnenschein Regendauer Solar Windben Empfang
10.07.2018 00:00 17,6 C 16,7 C 16,7 C 78 % 1018,3 hPa 0,0 l/m 0 min 0 min 0 W/m 11,3 km/h (2 Bft) 97,83 %
10.07.2018 00:02 17,6 C 16,7 C 16,7 C 78 % 1018,3 hPa 0,0 l/m 0 min 0 min 0 W/m 11,3 km/h (2 Bft) 100,00 %
10.07.2018 00:04 17,5 C 16,7 C 16,7 C 78 % 1018,2 hPa 0,0 l/m 0 min 0 min 0 W/m 11,3 km/h (2 Bft) 97,87 %
10.07.2018 00:08 17,5 C 16,7 C 16,7 C 78 % 1018,2 hPa 0,0 l/m 0 min 0 min 0 W/m 11,3 km/h (2 Bft) 97,92 %
10.07.2018 00:10 17,5 C 16,7 C 16,7 C 79 % 1018,2 hPa 0,0 l/m 0 min 0 min 0 W/m 13,5 km/h (3 Bft) 97,87 %
10.07.2018 00:12 17,4 C 16,7 C 16,7 C 78 % 1018,2 hPa 0,0 l/m 0 min 0 min 0 W/m 13,5 km/h (3 Bft) 97,87 %
10.07.2018 00:14 17,4 C 16,7 C 16,7 C 78 % 1018,2 hPa 0,0 l/m 0 min 0 min 0 W/m 20,3 km/h (4 Bft) 97,87 %
10.07.2018 00:16 17,4 C 16,7 C 16,7 C 78 % 1018,2 hPa 0,0 l/m 0 min 0 min 0 W/m 15,8 km/h (3 Bft) 97,83 %
10.07.2018 00:18 17,4 C 16,7 C 16,7 C 78 % 1018,2 hPa 0,0 l/m 0 min 0 min 0 W/m 13,5 km/h (3 Bft) 97,87 %
10.07.2018 00:20 17,4 C 16,7 C 16,7 C 78 % 1018,2 hPa 0,0 l/m 0 min 0 min 0 W/m 13,5 km/h (3 Bft) 95,74 %
10.07.2018 00:22 17,3 C 16,7 C 16,7 C 78 % 1018,2 hPa 0,0 l/m 0 min 0 min 0 W/m 15,8 km/h (3 Bft) 97,87 %
10.07.2018 00:24 17,3 C 16,7 C 16,7 C 78 % 1018,2 hPa 0,0 l/m 0 min 0 min 0 W/m 18,0 km/h (3 Bft) 97,87 %
10.07.2018 00:26 17,3 C 16,7 C 16,1 C 78 % 1018,2 hPa 0,0 l/m 0 min 0 min 0 W/m 18,0 km/h (3 Bft) 95,74 %
10.07.2018 00:28 17,2 C 16,7 C 16,1 C 78 % 1018,2 hPa 0,0 l/m 0 min 0 min 0 W/m 18,0 km/h (3 Bft) 97,83 %
10.07.2018 00:30 17,2 C 16,7 C 16,1 C 78 % 1018,2 hPa 0,0 l/m 0 min 0 min 0 W/m 15,8 km/h (3 Bft) 97,87 %
10.07.2018 00:32 17,2 C 16,7 C 16,1 C 78 % 1018,2 hPa 0,0 l/m 0 min 0 min 0 W/m 11,3 km/h (2 Bft) 95,74 %
10.07.2018 00:34 17,2 C 16,7 C 16,1 C 78 % 1018,1 hPa 0,0 l/m 0 min 0 min 0 W/m 11,3 km/h (2 Bft) 95,74 %
10.07.2018 00:36 17,1 C 16,7 C 16,1 C 78 % 1018,2 hPa 0,0 l/m 0 min 0 min 0 W/m 13,5 km/h (3 Bft) 93,62 %
10.07.2018 00:38 17,1 C 16,7 C 16,1 C 77 % 1018,1 hPa 0,0 l/m 0 min 0 min 0 W/m 11,3 km/h (2 Bft) 93,62 %
10.07.2018 00:40 17,1 C 16,7 C 16,1 C 77 % 1018,1 hPa 0,0 l/m 0 min 0 min 0 W/m 9,0 km/h (2 Bft) 93,48 %
10.07.2018 00:42 17,1 C 16,7 C 16,1 C 78 % 1018,1 hPa 0,0 l/m 0 min 0 min 0 W/m 9,0 km/h (2 Bft) 97,87 %
10.07.2018 00:44 17,1 C 16,7 C 16,1 C 78 % 1018,1 hPa 0,0 l/m 0 min 0 min 0 W/m 6,8 km/h (2 Bft) 97,87 %
10.07.2018 00:46 17,1 C 16,7 C 16,1 C 77 % 1018,1 hPa 0,0 l/m 0 min 0 min 0 W/m 11,3 km/h (2 Bft) 97,87 %
10.07.2018 00:48 17,0 C 16,1 C 16,1 C 77 % 1018,2 hPa 0,0 l/m 0 min 0 min 0 W/m 6,8 km/h (2 Bft) 93,62 %
10.07.2018 00:50 17,0 C 16,1 C 16,1 C 77 % 1018,1 hPa 0,0 l/m 0 min 0 min 0 W/m 6,8 km/h (2 Bft) 97,87 %
10.07.2018 00:52 17,0 C 16,1 C 16,1 C 77 % 1018,2 hPa 0,0 l/m 0 min 0 min 0 W/m 9,0 km/h (2 Bft) 97,83 %
10.07.2018 00:54 17,0 C 16,1 C 16,1 C 77 % 1018,1 hPa 0,0 l/m 0 min 0 min 0 W/m 6,8 km/h (2 Bft) 95,74 %
10.07.2018 00:56 17,0 C 16,1 C 16,1 C 78 % 1018,1 hPa 0,0 l/m 0 min 0 min 0 W/m 9,0 km/h (2 Bft) 93,62 %
10.07.2018 00:58 17,0 C 16,1 C 16,1 C 78 % 1018,1 hPa 0,0 l/m 0 min 0 min 0 W/m 13,5 km/h (3 Bft) 97,87 %
10.07.2018 01:00 16,9 C 16,1 C 16,1 C 78 % 1018,1 hPa 0,0 l/m 0 min 0 min 0 W/m 11,3 km/h (2 Bft) 97,87 %
10.07.2018 01:02 16,9 C 16,1 C 16,1 C 78 % 1018,2 hPa 0,0 l/m 0 min 0 min 0 W/m 9,0 km/h (2 Bft) 97,83 %
10.07.2018 01:04 16,9 C 16,1 C 16,1 C 78 % 1018,2 hPa 0,0 l/m 0 min 0 min 0 W/m 11,3 km/h (2 Bft) 97,87 %
10.07.2018 01:06 16,9 C 16,1 C 16,1 C 78 % 1018,2 hPa 0,0 l/m 0 min 0 min 0 W/m 11,3 km/h (2 Bft) 97,87 %
10.07.2018 01:08 16,9 C 16,1 C 16,1 C 78 % 1018,1 hPa 0,0 l/m 0 min 0 min 0 W/m 11,3 km/h (2 Bft) 97,87 %
10.07.2018 01:10 16,9 C 16,1 C 16,1 C 78 % 1018,2 hPa 0,0 l/m 0 min 0 min 0 W/m 15,8 km/h (3 Bft) 97,87 %
10.07.2018 01:12 16,9 C 16,1 C 16,1 C 77 % 1018,2 hPa 0,0 l/m 0 min 0 min 0 W/m 18,0 km/h (3 Bft) 95,74 %
10.07.2018 01:14 16,9 C 16,1 C 16,1 C 77 % 1018,1 hPa 0,0 l/m 0 min 0 min 0 W/m 11,3 km/h (2 Bft) 97,87 %
10.07.2018 01:16 16,9 C 16,1 C 16,1 C 77 % 1018,1 hPa 0,0 l/m 0 min 0 min 0 W/m 13,5 km/h (3 Bft) 97,83 %
10.07.2018 01:18 16,9 C 16,1 C 16,1 C 77 % 1018,0 hPa 0,0 l/m 0 min 0 min 0 W/m 13,5 km/h (3 Bft) 95,74 %
10.07.2018 01:20 16,8 C 16,1 C 16,1 C 77 % 1018,1 hPa 0,0 l/m 0 min 0 min 0 W/m 13,5 km/h (3 Bft) 95,74 %
10.07.2018 01:22 16,8 C 16,1 C 16,1 C 77 % 1018,1 hPa 0,0 l/m 0 min 0 min 0 W/m 15,8 km/h (3 Bft) 95,74 %
10.07.2018 01:24 16,8 C 16,1 C 16,1 C 77 % 1018,1 hPa 0,0 l/m 0 min 0 min 0 W/m 13,5 km/h (3 Bft) 97,87 %
10.07.2018 01:26 16,8 C 16,1 C 16,1 C 77 % 1018,1 hPa 0,0 l/m 0 min 0 min 0 W/m 11,3 km/h (2 Bft) 95,65 %
10.07.2018 01:28 16,8 C 16,1 C 16,1 C 77 % 1018,1 hPa 0,0 l/m 0 min 0 min 0 W/m 11,3 km/h (2 Bft) 95,74 %
10.07.2018 01:30 16,8 C 16,1 C 16,1 C 77 % 1018,2 hPa 0,0 l/m 0 min 0 min 0 W/m 13,5 km/h (3 Bft) 95,74 %
10.07.2018 01:32 16,7 C 16,1 C 16,1 C 77 % 1018,2 hPa 0,0 l/m 0 min 0 min 0 W/m 15,8 km/h (3 Bft) 97,87 %
10.07.2018 01:34 16,7 C 16,1 C 16,1 C 77 % 1018,1 hPa 0,0 l/m 0 min 0 min 0 W/m 13,5 km/h (3 Bft) 97,87 %
10.07.2018 01:36 16,7 C 16,1 C 15,6 C 77 % 1018,2 hPa 0,0 l/m 0 min 0 min 0 W/m 15,8 km/h (3 Bft) 95,74 %
10.07.2018 01:38 16,7 C 16,1 C 15,6 C 77 % 1018,1 hPa 0,0 l/m 0 min 0 min 0 W/m 15,8 km/h (3 Bft) 95,65 %
10.07.2018 01:40 16,7 C 16,1 C 15,6 C 77 % 1018,1 hPa 0,0 l/m 0 min 0 min 0 W/m 11,3 km/h (2 Bft) 97,87 %
10.07.2018 01:42 16,7 C 16,1 C 15,6 C 77 % 1018,1 hPa 0,0 l/m 0 min 0 min 0 W/m 11,3 km/h (2 Bft) 97,87 %
10.07.2018 01:44 16,6 C 16,1 C 15,6 C 77 % 1018,1 hPa 0,0 l/m 0 min 0 min 0 W/m 6,8 km/h (2 Bft) 97,87 %
10.07.2018 01:46 16,6 C 16,1 C 15,6 C 78 % 1018,1 hPa 0,0 l/m 0 min 0 min 0 W/m 9,0 km/h (2 Bft) 95,74 %
10.07.2018 01:48 16,6 C 16,1 C 15,6 C 78 % 1018,1 hPa 0,0 l/m 0 min 0 min 0 W/m 20,3 km/h (4 Bft) 95,74 %
10.07.2018 01:50 16,6 C 15,6 C 15,6 C 77 % 1018,1 hPa 0,0 l/m 0 min 0 min 0 W/m 18,0 km/h (3 Bft) 97,83 %
10.07.2018 01:52 16,6 C 15,6 C 15,6 C 77 % 1018,1 hPa 0,0 l/m 0 min 0 min 0 W/m 13,5 km/h (3 Bft) 96,43 %
10.07.2018 01:54 16,6 C 15,6 C 15,6 C 77 % 1018,1 hPa 0,0 l/m 0 min 0 min 0 W/m 13,5 km/h (3 Bft) 97,37 %
10.07.2018 01:56 16,5 C 15,6 C 15,6 C 77 % 1018,1 hPa 0,0 l/m 0 min 0 min 0 W/m 13,5 km/h (3 Bft) 97,83 %
10.07.2018 01:58 16,5 C 15,6 C 15,6 C 77 % 1018,1 hPa 0,0 l/m 0 min 0 min 0 W/m 15,8 km/h (3 Bft) 95,74 %
10.07.2018 02:00 16,4 C 15,6 C 15,6 C 77 % 1018,0 hPa 0,0 l/m 0 min 0 min 0 W/m 6,8 km/h (2 Bft) 97,87 %
10.07.2018 02:02 16,4 C 15,6 C 15,6 C 77 % 1018,0 hPa 0,0 l/m 0 min 0 min 0 W/m 13,5 km/h (3 Bft) 97,87 %
10.07.2018 02:04 16,4 C 15,6 C 15,6 C 77 % 1018,0 hPa 0,0 l/m 0 min 0 min 0 W/m 15,8 km/h (3 Bft) 97,87 %
10.07.2018 02:08 16,3 C 15,6 C 15,6 C 77 % 1018,0 hPa 0,0 l/m 0 min 0 min 0 W/m 13,5 km/h (3 Bft) 96,77 %
10.07.2018 02:10 16,3 C 15,6 C 15,6 C 77 % 1018,0 hPa 0,0 l/m 0 min 0 min 0 W/m 15,8 km/h (3 Bft) 97,87 %
10.07.2018 02:12 16,3 C 15,6 C 15,0 C 76 % 1018,0 hPa 0,0 l/m 0 min 0 min 0 W/m 22,5 km/h (4 Bft) 97,87 %
10.07.2018 02:14 16,2 C 15,6 C 15,0 C 76 % 1018,0 hPa 0,0 l/m 0 min 0 min 0 W/m 18,0 km/h (3 Bft) 97,87 %
10.07.2018 02:16 16,2 C 15,6 C 15,0 C 76 % 1018,0 hPa 0,0 l/m 0 min 0 min 0 W/m 18,0 km/h (3 Bft) 97,87 %
10.07.2018 02:18 16,2 C 15,6 C 15,0 C 76 % 1017,9 hPa 0,0 l/m 0 min 0 min 0 W/m 20,3 km/h (4 Bft) 95,74 %
10.07.2018 02:20 16,1 C 15,6 C 15,0 C 76 % 1017,9 hPa 0,0 l/m 0 min 0 min 0 W/m 15,8 km/h (3 Bft) 97,83 %
10.07.2018 02:22 16,1 C 15,6 C 15,0 C 76 % 1017,9 hPa 0,0 l/m 0 min 0 min 0 W/m 6,8 km/h (2 Bft) 97,87 %
10.07.2018 02:24 16,1 C 15,6 C 15,0 C 76 % 1017,9 hPa 0,0 l/m 0 min 0 min 0 W/m 15,8 km/h (3 Bft) 95,74 %
10.07.2018 02:26 16,0 C 15,0 C 15,0 C 76 % 1017,9 hPa 0,0 l/m 0 min 0 min 0 W/m 13,5 km/h (3 Bft) 97,87 %
10.07.2018 02:28 16,0 C 15,0 C 15,0 C 76 % 1017,9 hPa 0,0 l/m 0 min 0 min 0 W/m 13,5 km/h (3 Bft) 100,00 %
10.07.2018 02:30 15,9 C 15,0 C 15,0 C 76 % 1017,9 hPa 0,0 l/m 0 min 0 min 0 W/m 13,5 km/h (3 Bft) 100,00 %
10.07.2018 02:32 15,9 C 15,0 C 15,0 C 76 % 1017,9 hPa 0,0 l/m 0 min 0 min 0 W/m 18,0 km/h (3 Bft) 100,00 %
10.07.2018 02:34 15,9 C 15,0 C 15,0 C 76 % 1017,9 hPa 0,0 l/m 0 min 0 min 0 W/m 20,3 km/h (4 Bft) 100,00 %
10.07.2018 02:36 15,9 C 15,0 C 15,0 C 76 % 1017,9 hPa 0,0 l/m 0 min 0 min 0 W/m 13,5 km/h (3 Bft) 100,00 %
10.07.2018 02:38 15,8 C 15,0 C 15,0 C 76 % 1017,9 hPa 0,0 l/m 0 min 0 min 0 W/m 9,0 km/h (2 Bft) 100,00 %
10.07.2018 02:40 15,8 C 15,0 C 15,0 C 76 % 1017,9 hPa 0,0 l/m 0 min 0 min 0 W/m 11,3 km/h (2 Bft) 100,00 %
10.07.2018 02:42 15,8 C 15,0 C 15,0 C 77 % 1017,9 hPa 0,0 l/m 0 min 0 min 0 W/m 18,0 km/h (3 Bft) 100,00 %
10.07.2018 02:44 15,8 C 15,0 C 15,0 C 76 % 1017,9 hPa 0,0 l/m 0 min 0 min 0 W/m 15,8 km/h (3 Bft) 97,87 %
10.07.2018 02:46 15,7 C 15,0 C 15,0 C 77 % 1017,9 hPa 0,0 l/m 0 min 0 min 0 W/m 15,8 km/h (3 Bft) 93,62 %
10.07.2018 02:48 15,7 C 15,0 C 15,0 C 77 % 1017,9 hPa 0,0 l/m 0 min 0 min 0 W/m 15,8 km/h (3 Bft) 97,83 %
10.07.2018 02:50 15,7 C 15,0 C 15,0 C 77 % 1017,8 hPa 0,0 l/m 0 min 0 min 0 W/m 15,8 km/h (3 Bft) 97,87 %
10.07.2018 02:52 15,7 C 15,0 C 15,0 C 77 % 1017,8 hPa 0,0 l/m 0 min 0 min 0 W/m 13,5 km/h (3 Bft) 96,30 %
10.07.2018 02:54 15,6 C 15,0 C 15,0 C 77 % 1017,8 hPa 0,0 l/m 0 min 0 min 0 W/m 13,5 km/h (3 Bft) 95,65 %
10.07.2018 02:56 15,6 C 15,0 C 15,0 C 77 % 1017,8 hPa 0,0 l/m 0 min 0 min 0 W/m 11,3 km/h (2 Bft) 95,74 %
10.07.2018 02:58 15,6 C 15,0 C 15,0 C 77 % 1017,8 hPa 0,0 l/m 0 min 0 min 0 W/m 11,3 km/h (2 Bft) 97,87 %
10.07.2018 03:00 15,6 C 15,0 C 15,0 C 77 % 1017,7 hPa 0,0 l/m 0 min 0 min 0 W/m 13,5 km/h (3 Bft) 97,87 %
10.07.2018 03:02 15,6 C 15,0 C 15,0 C 77 % 1017,8 hPa 0,0 l/m 0 min 0 min 0 W/m 15,8 km/h (3 Bft) 97,87 %
10.07.2018 03:04 15,6 C 15,0 C 15,0 C 77 % 1017,8 hPa 0,0 l/m 0 min 0 min 0 W/m 22,5 km/h (4 Bft) 97,87 %
10.07.2018 03:06 15,5 C 15,0 C 15,0 C 77 % 1017,7 hPa 0,0 l/m 0 min 0 min 0 W/m 22,5 km/h (4 Bft) 97,87 %
10.07.2018 03:08 15,5 C 15,0 C 14,4 C 77 % 1017,8 hPa 0,0 l/m 0 min 0 min 0 W/m 9,0 km/h (2 Bft) 97,87 %
10.07.2018 03:10 15,5 C 14,4 C 14,4 C 78 % 1017,8 hPa 0,0 l/m 0 min 0 min 0 W/m 13,5 km/h (3 Bft) 95,74 %
10.07.2018 03:12 15,5 C 14,4 C 14,4 C 78 % 1017,8 hPa 0,0 l/m 0 min 0 min 0 W/m 11,3 km/h (2 Bft) 95,74 %
10.07.2018 03:14 15,4 C 14,4 C 14,4 C 78 % 1017,8 hPa 0,0 l/m 0 min 0 min 0 W/m 13,5 km/h (3 Bft) 97,87 %
10.07.2018 03:16 15,4 C 14,4 C 14,4 C 79 % 1017,8 hPa 0,0 l/m 0 min 0 min 0 W/m 15,8 km/h (3 Bft) 97,83 %
10.07.2018 03:18 15,4 C 14,4 C 14,4 C 79 % 1017,8 hPa 0,0 l/m 0 min 0 min 0 W/m 11,3 km/h (2 Bft) 95,74 %
10.07.2018 03:20 15,3 C 14,4 C 14,4 C 79 % 1017,8 hPa 0,0 l/m 0 min 0 min 0 W/m 15,8 km/h (3 Bft) 97,87 %
10.07.2018 03:22 15,3 C 14,4 C 14,4 C 79 % 1017,8 hPa 0,0 l/m 0 min 0 min 0 W/m 9,0 km/h (2 Bft) 97,87 %
10.07.2018 03:24 15,3 C 14,4 C 14,4 C 79 % 1017,8 hPa 0,0 l/m 0 min 0 min 0 W/m 13,5 km/h (3 Bft) 97,87 %
10.07.2018 03:26 15,2 C 14,4 C 13,9 C 79 % 1017,8 hPa 0,0 l/m 0 min 0 min 0 W/m 15,8 km/h (3 Bft) 97,87 %
10.07.2018 03:28 15,2 C 14,4 C 13,9 C 79 % 1017,7 hPa 0,0 l/m 0 min 0 min 0 W/m 9,0 km/h (2 Bft) 95,65 %
10.07.2018 03:30 15,2 C 13,9 C 13,9 C 80 % 1017,8 hPa 0,0 l/m 0 min 0 min 0 W/m 18,0 km/h (3 Bft) 97,87 %
10.07.2018 03:32 15,1 C 13,9 C 13,9 C 80 % 1017,7 hPa 0,0 l/m 0 min 0 min 0 W/m 20,3 km/h (4 Bft) 100,00 %
10.07.2018 03:34 15,1 C 13,9 C 13,9 C 80 % 1017,7 hPa 0,0 l/m 0 min 0 min 0 W/m 11,3 km/h (2 Bft) 100,00 %
10.07.2018 03:36 15,1 C 13,9 C 13,9 C 80 % 1017,7 hPa 0,0 l/m 0 min 0 min 0 W/m 18,0 km/h (3 Bft) 100,00 %
10.07.2018 03:38 15,0 C 13,9 C 13,9 C 80 % 1017,7 hPa 0,0 l/m 0 min 0 min 0 W/m 13,5 km/h (3 Bft) 95,74 %
10.07.2018 03:40 14,9 C 13,9 C 13,9 C 80 % 1017,8 hPa 0,0 l/m 0 min 0 min 0 W/m 13,5 km/h (3 Bft) 100,00 %
10.07.2018 03:42 14,9 C 13,9 C 13,9 C 80 % 1017,8 hPa 0,0 l/m 0 min 0 min 0 W/m 15,8 km/h (3 Bft) 100,00 %
10.07.2018 03:44 14,9 C 13,9 C 13,9 C 80 % 1017,7 hPa 0,0 l/m 0 min 0 min 0 W/m 15,8 km/h (3 Bft) 100,00 %
10.07.2018 03:46 14,8 C 13,9 C 13,9 C 80 % 1017,7 hPa 0,0 l/m 0 min 0 min 0 W/m 11,3 km/h (2 Bft) 100,00 %
10.07.2018 03:48 14,8 C 13,9 C 13,9 C 81 % 1017,7 hPa 0,0 l/m 0 min 0 min 0 W/m 13,5 km/h (3 Bft) 97,87 %
10.07.2018 03:50 14,8 C 13,9 C 13,9 C 81 % 1017,7 hPa 0,0 l/m 0 min 0 min 0 W/m 13,5 km/h (3 Bft) 100,00 %
10.07.2018 03:52 14,7 C 13,9 C 13,9 C 81 % 1017,7 hPa 0,0 l/m 0 min 0 min 0 W/m 18,0 km/h (3 Bft) 100,00 %
10.07.2018 03:54 14,7 C 13,9 C 13,9 C 81 % 1017,6 hPa 0,0 l/m 0 min 0 min 0 W/m 15,8 km/h (3 Bft) 100,00 %
10.07.2018 03:56 14,7 C 13,9 C 13,9 C 81 % 1017,6 hPa 0,0 l/m 0 min 0 min 0 W/m 11,3 km/h (2 Bft) 97,87 %
10.07.2018 03:58 14,6 C 13,9 C 13,9 C 81 % 1017,6 hPa 0,0 l/m 0 min 0 min 0 W/m 9,0 km/h (2 Bft) 100,00 %
10.07.2018 04:00 14,6 C 13,9 C 13,9 C 81 % 1017,6 hPa 0,0 l/m 0 min 0 min 0 W/m 9,0 km/h (2 Bft) 100,00 %
10.07.2018 04:02 14,6 C 13,9 C 13,9 C 82 % 1017,6 hPa 0,0 l/m 0 min 0 min 0 W/m 13,5 km/h (3 Bft) 100,00 %
10.07.2018 04:04 14,5 C 13,9 C 13,9 C 82 % 1017,6 hPa 0,0 l/m 0 min 0 min 0 W/m 22,5 km/h (4 Bft) 97,87 %
10.07.2018 04:06 14,4 C 13,9 C 13,9 C 81 % 1017,6 hPa 0,0 l/m 0 min 0 min 0 W/m 20,3 km/h (4 Bft) 100,00 %
10.07.2018 04:08 14,4 C 13,9 C 13,3 C 81 % 1017,7 hPa 0,0 l/m 0 min 0 min 0 W/m 22,5 km/h (4 Bft) 100,00 %
10.07.2018 04:10 14,4 C 13,9 C 13,3 C 81 % 1017,6 hPa 0,0 l/m 0 min 0 min 0 W/m 18,0 km/h (3 Bft) 100,00 %
10.07.2018 04:12 14,3 C 13,3 C 13,3 C 81 % 1017,5 hPa 0,0 l/m 0 min 0 min 0 W/m 11,3 km/h (2 Bft) 100,00 %
10.07.2018 04:14 14,3 C 13,3 C 13,3 C 81 % 1017,6 hPa 0,0 l/m 0 min 0 min 0 W/m 13,5 km/h (3 Bft) 97,87 %
10.07.2018 04:16 14,2 C 13,3 C 13,3 C 81 % 1017,6 hPa 0,0 l/m 0 min 0 min 0 W/m 6,8 km/h (2 Bft) 95,65 %
10.07.2018 04:18 14,2 C 13,3 C 13,3 C 82 % 1017,6 hPa 0,0 l/m 0 min 0 min 0 W/m 15,8 km/h (3 Bft) 100,00 %
10.07.2018 04:20 14,2 C 13,3 C 13,3 C 82 % 1017,6 hPa 0,0 l/m 0 min 0 min 0 W/m 15,8 km/h (3 Bft) 93,62 %
10.07.2018 04:22 14,2 C 13,3 C 13,3 C 82 % 1017,6 hPa 0,0 l/m 0 min 0 min 0 W/m 11,3 km/h (2 Bft) 100,00 %
10.07.2018 04:24 14,2 C 13,3 C 13,3 C 82 % 1017,6 hPa 0,0 l/m 0 min 0 min 0 W/m 15,8 km/h (3 Bft) 95,74 %
10.07.2018 04:26 14,2 C 13,3 C 13,3 C 82 % 1017,5 hPa 0,0 l/m 0 min 0 min 0 W/m 11,3 km/h (2 Bft) 95,74 %
10.07.2018 04:28 14,2 C 13,3 C 13,3 C 82 % 1017,5 hPa 0,0 l/m 0 min 0 min 0 W/m 9,0 km/h (2 Bft) 97,87 %
10.07.2018 04:30 14,2 C 13,3 C 13,3 C 82 % 1017,6 hPa 0,0 l/m 0 min 0 min 0 W/m 9,0 km/h (2 Bft) 97,83 %
10.07.2018 04:32 14,2 C 13,3 C 13,3 C 82 % 1017,6 hPa 0,0 l/m 0 min 0 min 0 W/m 6,8 km/h (2 Bft) 97,87 %
10.07.2018 04:34 14,2 C 13,3 C 13,3 C 82 % 1017,5 hPa 0,0 l/m 0 min 0 min 0 W/m 4,5 km/h (1 Bft) 93,62 %
10.07.2018 04:36 14,2 C 13,3 C 13,3 C 83 % 1017,6 hPa 0,0 l/m 0 min 0 min 0 W/m 9,0 km/h (2 Bft) 95,74 %
10.07.2018 04:38 14,2 C 13,3 C 13,3 C 83 % 1017,6 hPa 0,0 l/m 0 min 0 min 0 W/m 9,0 km/h (2 Bft) 93,62 %
10.07.2018 04:40 14,2 C 13,3 C 13,3 C 83 % 1017,6 hPa 0,0 l/m 0 min 0 min 0 W/m 15,8 km/h (3 Bft) 93,48 %
10.07.2018 04:42 14,2 C 13,3 C 13,3 C 82 % 1017,6 hPa 0,0 l/m 0 min 0 min 0 W/m 11,3 km/h (2 Bft) 95,74 %
10.07.2018 04:44 14,2 C 13,3 C 13,3 C 82 % 1017,6 hPa 0,0 l/m 0 min 0 min 0 W/m 13,5 km/h (3 Bft) 93,62 %
10.07.2018 04:46 14,2 C 13,3 C 13,3 C 82 % 1017,6 hPa 0,0 l/m 0 min 0 min 0 W/m 9,0 km/h (2 Bft) 95,74 %
10.07.2018 04:48 14,1 C 13,3 C 13,3 C 82 % 1017,5 hPa 0,0 l/m 0 min 0 min 0 W/m 11,3 km/h (2 Bft) 95,74 %
10.07.2018 04:50 14,1 C 13,3 C 13,3 C 82 % 1017,5 hPa 0,0 l/m 0 min 0 min 0 W/m 11,3 km/h (2 Bft) 95,74 %
10.07.2018 04:52 14,0 C 13,3 C 13,3 C 82 % 1017,6 hPa 0,0 l/m 0 min 0 min 0 W/m 15,8 km/h (3 Bft) 93,48 %
10.07.2018 04:54 14,0 C 13,3 C 13,3 C 82 % 1017,5 hPa 0,0 l/m 0 min 0 min 0 W/m 9,0 km/h (2 Bft) 95,74 %
10.07.2018 04:56 13,9 C 13,3 C 13,3 C 82 % 1017,5 hPa 0,0 l/m 0 min 0 min 0 W/m 6,8 km/h (2 Bft) 95,74 %
10.07.2018 04:58 13,9 C 13,3 C 13,3 C 83 % 1017,5 hPa 0,0 l/m 0 min 0 min 0 W/m 13,5 km/h (3 Bft) 95,74 %
10.07.2018 05:00 13,9 C 13,3 C 13,3 C 83 % 1017,4 hPa 0,0 l/m 0 min 0 min 0 W/m 6,8 km/h (2 Bft) 95,74 %
10.07.2018 05:02 13,9 C 13,3 C 13,3 C 83 % 1017,4 hPa 0,0 l/m 0 min 0 min 0 W/m 4,5 km/h (1 Bft) 93,62 %
10.07.2018 05:04 13,9 C 13,3 C 13,3 C 83 % 1017,4 hPa 0,0 l/m 0 min 0 min 0 W/m 4,5 km/h (1 Bft) 95,65 %
10.07.2018 05:06 13,9 C 13,3 C 13,3 C 83 % 1017,4 hPa 0,0 l/m 0 min 0 min 0 W/m 4,5 km/h (1 Bft) 95,74 %
10.07.2018 05:08 13,9 C 13,3 C 13,3 C 83 % 1017,5 hPa 0,0 l/m 0 min 0 min 0 W/m 6,8 km/h (2 Bft) 93,62 %
10.07.2018 05:10 13,9 C 13,3 C 13,3 C 83 % 1017,4 hPa 0,0 l/m 0 min 0 min 0 W/m 2,3 km/h (1 Bft) 93,62 %
10.07.2018 05:12 13,9 C 13,3 C 13,3 C 83 % 1017,4 hPa 0,0 l/m 0 min 0 min 0 W/m 6,8 km/h (2 Bft) 95,74 %
10.07.2018 05:14 13,9 C 13,3 C 13,3 C 83 % 1017,3 hPa 0,0 l/m 0 min 0 min 0 W/m 4,5 km/h (1 Bft) 97,87 %
10.07.2018 05:16 13,9 C 13,3 C 13,3 C 83 % 1017,4 hPa 0,0 l/m 0 min 0 min 0 W/m 2,3 km/h (1 Bft) 95,65 %
10.07.2018 05:18 13,9 C 13,3 C 13,3 C 83 % 1017,4 hPa 0,0 l/m 0 min 0 min 0 W/m 9,0 km/h (2 Bft) 95,74 %
10.07.2018 05:20 13,9 C 13,3 C 13,3 C 83 % 1017,4 hPa 0,0 l/m 0 min 0 min 0 W/m 9,0 km/h (2 Bft) 95,74 %
10.07.2018 05:22 13,9 C 13,3 C 13,3 C 83 % 1017,5 hPa 0,0 l/m 0 min 0 min 0 W/m 13,5 km/h (3 Bft) 93,75 %
10.07.2018 05:24 13,9 C 13,3 C 13,3 C 83 % 1017,5 hPa 0,0 l/m 0 min 0 min 0 W/m 4,5 km/h (1 Bft) 97,87 %
10.07.2018 05:26 13,9 C 13,3 C 13,3 C 83 % 1017,4 hPa 0,0 l/m 0 min 0 min 0 W/m 6,8 km/h (2 Bft) 97,87 %
10.07.2018 05:28 13,9 C 13,3 C 13,3 C 82 % 1017,4 hPa 0,0 l/m 0 min 0 min 0 W/m 6,8 km/h (2 Bft) 97,83 %
10.07.2018 05:30 13,9 C 13,3 C 13,3 C 83 % 1017,3 hPa 0,0 l/m 0 min 0 min 0 W/m 6,8 km/h (2 Bft) 100,00 %
10.07.2018 05:32 13,9 C 13,3 C 13,3 C 83 % 1017,3 hPa 0,0 l/m 0 min 0 min 0 W/m 6,8 km/h (2 Bft) 97,87 %
10.07.2018 05:34 13,9 C 13,3 C 13,3 C 82 % 1017,4 hPa 0,0 l/m 0 min 0 min 2 W/m 9,0 km/h (2 Bft) 100,00 %
10.07.2018 05:35 13,9 C 13,3 C 13,3 C 82 % 1017,3 hPa 0,0 l/m 0 min 0 min 2 W/m 9,0 km/h (2 Bft) 100,00 %
10.07.2018 05:40 13,9 C 13,3 C 13,3 C 82 % 1017,4 hPa 0,0 l/m 0 min 0 min 5 W/m 6,8 km/h (2 Bft) 91,43 %
10.07.2018 05:42 13,9 C 13,3 C 13,3 C 82 % 1017,4 hPa 0,0 l/m 0 min 0 min 5 W/m 9,0 km/h (2 Bft) 95,74 %
10.07.2018 05:44 13,9 C 13,3 C 13,3 C 83 % 1017,3 hPa 0,0 l/m 0 min 0 min 5 W/m 6,8 km/h (2 Bft) 97,87 %
10.07.2018 05:46 13,9 C 13,3 C 13,3 C 83 % 1017,2 hPa 0,0 l/m 0 min 0 min 5 W/m 4,5 km/h (1 Bft) 97,87 %
10.07.2018 05:48 13,9 C 13,3 C 13,3 C 83 % 1017,2 hPa 0,0 l/m 0 min 0 min 5 W/m 4,5 km/h (1 Bft) 95,74 %
10.07.2018 05:50 13,9 C 13,3 C 13,3 C 83 % 1017,2 hPa 0,0 l/m 0 min 0 min 6 W/m 6,8 km/h (2 Bft) 97,83 %
10.07.2018 05:52 13,9 C 13,3 C 13,3 C 83 % 1017,2 hPa 0,0 l/m 0 min 0 min 7 W/m 6,8 km/h (2 Bft) 95,74 %
10.07.2018 05:54 13,9 C 13,3 C 13,3 C 83 % 1017,2 hPa 0,0 l/m 0 min 0 min 8 W/m 6,8 km/h (2 Bft) 97,87 %
10.07.2018 05:56 13,9 C 13,3 C 13,3 C 83 % 1017,2 hPa 0,0 l/m 0 min 0 min 9 W/m 4,5 km/h (1 Bft) 97,87 %
10.07.2018 05:58 13,9 C 13,3 C 13,3 C 83 % 1017,2 hPa 0,0 l/m 0 min 0 min 11 W/m 6,8 km/h (2 Bft) 97,87 %
10.07.2018 06:00 13,9 C 13,3 C 13,3 C 83 % 1017,2 hPa 0,0 l/m 0 min 0 min 12 W/m 2,3 km/h (1 Bft) 97,87 %
10.07.2018 06:02 13,9 C 13,3 C 13,3 C 83 % 1017,2 hPa 0,0 l/m 0 min 0 min 12 W/m 2,3 km/h (1 Bft) 97,14 %
10.07.2018 06:04 13,9 C 13,3 C 13,3 C 83 % 1017,3 hPa 0,0 l/m 0 min 0 min 14 W/m 11,3 km/h (2 Bft) 97,87 %
10.07.2018 06:07 13,9 C 13,3 C 13,3 C 83 % 1017,3 hPa 0,0 l/m 0 min 0 min 18 W/m 4,5 km/h (1 Bft) 97,87 %
10.07.2018 06:08 13,9 C 13,3 C 13,3 C 83 % 1017,3 hPa 0,0 l/m 0 min 0 min 17 W/m 4,5 km/h (1 Bft) 97,03 %
10.07.2018 06:10 13,9 C 13,3 C 13,3 C 83 % 1017,4 hPa 0,0 l/m 0 min 0 min 20 W/m 4,5 km/h (1 Bft) 97,87 %
10.07.2018 06:12 13,9 C 13,3 C 13,3 C 83 % 1017,3 hPa 0,0 l/m 0 min 0 min 21 W/m 6,8 km/h (2 Bft) 97,87 %
10.07.2018 06:14 13,9 C 13,3 C 13,3 C 83 % 1017,3 hPa 0,0 l/m 0 min 0 min 22 W/m 2,3 km/h (1 Bft) 97,83 %
10.07.2018 06:16 13,9 C 13,3 C 13,3 C 83 % 1017,3 hPa 0,0 l/m 0 min 0 min 24 W/m 2,3 km/h (1 Bft) 95,74 %
10.07.2018 06:18 13,9 C 13,3 C 13,3 C 83 % 1017,3 hPa 0,0 l/m 0 min 0 min 25 W/m 2,3 km/h (1 Bft) 97,87 %
10.07.2018 06:20 13,9 C 13,9 C 13,3 C 82 % 1017,3 hPa 0,0 l/m 0 min 0 min 25 W/m 0,0 km/h (0 Bft) 95,74 %
10.07.2018 06:22 14,0 C 13,9 C 13,3 C 82 % 1017,3 hPa 0,0 l/m 0 min 0 min 26 W/m 6,8 km/h (2 Bft) 97,87 %
10.07.2018 06:24 14,0 C 13,9 C 13,3 C 82 % 1017,2 hPa 0,0 l/m 0 min 0 min 28 W/m 4,5 km/h (1 Bft) 95,74 %
10.07.2018 06:26 14,0 C 13,9 C 13,3 C 82 % 1017,4 hPa 0,0 l/m 0 min 0 min 28 W/m 4,5 km/h (1 Bft) 97,83 %
10.07.2018 06:28 14,0 C 13,9 C 13,3 C 82 % 1017,3 hPa 0,0 l/m 0 min 0 min 27 W/m 4,5 km/h (1 Bft) 97,87 %
10.07.2018 06:30 14,0 C 13,9 C 13,3 C 83 % 1017,3 hPa 0,0 l/m 0 min 0 min 25 W/m 2,3 km/h (1 Bft) 100,00 %
10.07.2018 06:32 14,0 C 13,9 C 13,3 C 83 % 1017,3 hPa 0,0 l/m 0 min 0 min 24 W/m 4,5 km/h (1 Bft) 100,00 %
10.07.2018 06:34 14,0 C 13,9 C 13,3 C 83 % 1017,3 hPa 0,0 l/m 0 min 0 min 24 W/m 9,0 km/h (2 Bft) 100,00 %
10.07.2018 06:36 14,1 C 13,9 C 13,3 C 83 % 1017,3 hPa 0,0 l/m 0 min 0 min 26 W/m 6,8 km/h (2 Bft) 100,00 %
10.07.2018 06:38 14,1 C 13,9 C 13,3 C 83 % 1017,3 hPa 0,0 l/m 0 min 0 min 29 W/m 4,5 km/h (1 Bft) 97,83 %
10.07.2018 06:40 14,1 C 13,9 C 13,3 C 83 % 1017,2 hPa 0,0 l/m 0 min 0 min 32 W/m 4,5 km/h (1 Bft) 100,00 %
10.07.2018 06:42 14,1 C 13,9 C 13,3 C 83 % 1017,2 hPa 0,0 l/m 0 min 0 min 38 W/m 4,5 km/h (1 Bft) 100,00 %
10.07.2018 06:44 14,1 C 13,9 C 13,3 C 83 % 1017,2 hPa 0,0 l/m 0 min 0 min 48 W/m 4,5 km/h (1 Bft) 100,00 %
10.07.2018 06:46 14,1 C 13,9 C 13,3 C 83 % 1017,2 hPa 0,0 l/m 0 min 0 min 59 W/m 9,0 km/h (2 Bft) 97,87 %
10.07.2018 06:48 14,1 C 13,9 C 13,3 C 83 % 1017,2 hPa 0,0 l/m 0 min 0 min 61 W/m 6,8 km/h (2 Bft) 100,00 %
10.07.2018 06:50 14,2 C 13,9 C 13,3 C 83 % 1017,3 hPa 0,0 l/m 0 min 0 min 53 W/m 6,8 km/h (2 Bft) 100,00 %
10.07.2018 06:52 14,2 C 13,9 C 13,3 C 83 % 1017,3 hPa 0,0 l/m 0 min 0 min 50 W/m 4,5 km/h (1 Bft) 100,00 %
10.07.2018 06:54 14,2 C 13,9 C 13,3 C 83 % 1017,3 hPa 0,0 l/m 0 min 0 min 52 W/m 6,8 km/h (2 Bft) 97,87 %
10.07.2018 06:56 14,2 C 13,9 C 13,3 C 84 % 1017,3 hPa 0,0 l/m 0 min 0 min 56 W/m 9,0 km/h (2 Bft) 100,00 %
10.07.2018 06:58 14,2 C 13,9 C 13,3 C 84 % 1017,3 hPa 0,0 l/m 0 min 0 min 57 W/m 4,5 km/h (1 Bft) 100,00 %
10.07.2018 07:00 14,2 C 13,9 C 13,3 C 84 % 1017,2 hPa 0,0 l/m 0 min 0 min 51 W/m 4,5 km/h (1 Bft) 97,83 %
10.07.2018 07:02 14,2 C 13,9 C 13,3 C 84 % 1017,2 hPa 0,0 l/m 0 min 0 min 48 W/m 2,3 km/h (1 Bft) 97,87 %
10.07.2018 07:04 14,2 C 13,9 C 13,3 C 84 % 1017,2 hPa 0,0 l/m 0 min 0 min 47 W/m 6,8 km/h (2 Bft) 97,87 %
10.07.2018 07:06 14,2 C 13,9 C 13,3 C 84 % 1017,2 hPa 0,0 l/m 0 min 0 min 49 W/m 4,5 km/h (1 Bft) 100,00 %
10.07.2018 07:08 14,2 C 13,9 C 13,9 C 84 % 1017,2 hPa 0,0 l/m 0 min 0 min 48 W/m 4,5 km/h (1 Bft) 97,87 %
10.07.2018 07:10 14,2 C 13,9 C 13,9 C 84 % 1017,1 hPa 0,0 l/m 0 min 0 min 45 W/m 4,5 km/h (1 Bft) 97,87 %
10.07.2018 07:12 14,2 C 13,9 C 13,9 C 84 % 1017,1 hPa 0,0 l/m 0 min 0 min 43 W/m 2,3 km/h (1 Bft) 100,00 %
10.07.2018 07:14 14,2 C 13,9 C 13,9 C 84 % 1017,0 hPa 0,0 l/m 0 min 0 min 41 W/m 4,5 km/h (1 Bft) 100,00 %
10.07.2018 07:16 14,2 C 13,9 C 13,9 C 84 % 1017,0 hPa 0,0 l/m 0 min 0 min 40 W/m 6,8 km/h (2 Bft) 100,00 %
10.07.2018 07:18 14,2 C 13,9 C 13,9 C 84 % 1017,0 hPa 0,0 l/m 0 min 0 min 44 W/m 9,0 km/h (2 Bft) 97,87 %
10.07.2018 07:20 14,2 C 13,9 C 13,9 C 84 % 1017,0 hPa 0,0 l/m 0 min 0 min 51 W/m 9,0 km/h (2 Bft) 97,87 %
10.07.2018 07:22 14,2 C 13,9 C 13,9 C 84 % 1016,9 hPa 0,0 l/m 0 min 0 min 67 W/m 13,5 km/h (3 Bft) 100,00 %
10.07.2018 07:24 14,2 C 14,4 C 13,9 C 84 % 1016,9 hPa 0,0 l/m 0 min 0 min 79 W/m 4,5 km/h (1 Bft) 97,83 %
10.07.2018 07:26 14,2 C 14,4 C 13,9 C 83 % 1017,0 hPa 0,0 l/m 0 min 0 min 83 W/m 4,5 km/h (1 Bft) 97,87 %
10.07.2018 07:28 14,2 C 14,4 C 13,9 C 83 % 1017,0 hPa 0,0 l/m 0 min 0 min 95 W/m 9,0 km/h (2 Bft) 97,87 %
10.07.2018 07:30 14,2 C 14,4 C 13,9 C 83 % 1016,9 hPa 0,0 l/m 0 min 0 min 105 W/m 6,8 km/h (2 Bft) 97,87 %
10.07.2018 07:32 14,2 C 14,4 C 13,9 C 83 % 1016,9 hPa 0,0 l/m 0 min 0 min 105 W/m 9,0 km/h (2 Bft) 97,87 %
10.07.2018 07:34 14,2 C 14,4 C 13,9 C 83 % 1016,9 hPa 0,0 l/m 0 min 0 min 110 W/m 11,3 km/h (2 Bft) 97,87 %
10.07.2018 07:36 14,2 C 14,4 C 13,9 C 82 % 1017,0 hPa 0,0 l/m 0 min 0 min 113 W/m 6,8 km/h (2 Bft) 95,65 %
10.07.2018 07:38 14,3 C 15,0 C 13,9 C 82 % 1017,0 hPa 0,0 l/m 0 min 0 min 115 W/m 4,5 km/h (1 Bft) 97,87 %
10.07.2018 07:40 14,3 C 15,0 C 13,9 C 82 % 1017,0 hPa 0,0 l/m 0 min 0 min 116 W/m 11,3 km/h (2 Bft) 97,87 %
10.07.2018 07:42 14,4 C 15,0 C 13,9 C 82 % 1017,1 hPa 0,0 l/m 0 min 0 min 115 W/m 6,8 km/h (2 Bft) 97,87 %
10.07.2018 07:44 14,4 C 15,0 C 14,4 C 82 % 1017,0 hPa 0,0 l/m 0 min 0 min 118 W/m 6,8 km/h (2 Bft) 95,74 %
10.07.2018 07:46 14,4 C 15,0 C 14,4 C 82 % 1016,9 hPa 0,0 l/m 0 min 0 min 120 W/m 9,0 km/h (2 Bft) 97,87 %
10.07.2018 07:48 14,5 C 15,0 C 14,4 C 82 % 1017,0 hPa 0,0 l/m 0 min 0 min 122 W/m 11,3 km/h (2 Bft) 97,83 %
10.07.2018 07:50 14,5 C 15,0 C 13,9 C 81 % 1016,8 hPa 0,0 l/m 0 min 0 min 127 W/m 9,0 km/h (2 Bft) 95,74 %
10.07.2018 07:52 14,6 C 15,0 C 13,9 C 81 % 1016,9 hPa 0,0 l/m 0 min 0 min 128 W/m 6,8 km/h (2 Bft) 97,87 %
10.07.2018 07:54 14,6 C 15,0 C 14,4 C 81 % 1016,8 hPa 0,0 l/m 0 min 0 min 128 W/m 11,3 km/h (2 Bft) 97,87 %
10.07.2018 07:56 14,6 C 15,0 C 14,4 C 81 % 1016,8 hPa 0,0 l/m 0 min 0 min 136 W/m 4,5 km/h (1 Bft) 95,74 %
10.07.2018 07:58 14,7 C 15,0 C 14,4 C 81 % 1016,8 hPa 0,0 l/m 0 min 0 min 147 W/m 6,8 km/h (2 Bft) 97,83 %
10.07.2018 08:00 14,7 C 15,6 C 14,4 C 81 % 1016,8 hPa 0,0 l/m 0 min 0 min 157 W/m 6,8 km/h (2 Bft) 97,87 %
10.07.2018 08:02 14,7 C 15,6 C 14,4 C 81 % 1016,8 hPa 0,0 l/m 0 min 0 min 164 W/m 6,8 km/h (2 Bft) 95,74 %
10.07.2018 08:04 14,8 C 15,6 C 14,4 C 81 % 1016,8 hPa 0,0 l/m 0 min 0 min 162 W/m 9,0 km/h (2 Bft) 97,87 %
10.07.2018 08:06 14,8 C 15,6 C 14,4 C 81 % 1016,8 hPa 0,0 l/m 0 min 0 min 162 W/m 9,0 km/h (2 Bft) 97,87 %
10.07.2018 08:08 14,9 C 15,6 C 14,4 C 80 % 1016,8 hPa 0,0 l/m 0 min 0 min 166 W/m 6,8 km/h (2 Bft) 97,87 %
10.07.2018 08:10 14,9 C 15,6 C 14,4 C 80 % 1016,7 hPa 0,0 l/m 0 min 0 min 166 W/m 11,3 km/h (2 Bft) 97,83 %
10.07.2018 08:12 14,9 C 15,6 C 14,4 C 79 % 1016,7 hPa 0,0 l/m 0 min 0 min 173 W/m 6,8 km/h (2 Bft) 97,87 %
10.07.2018 08:14 14,9 C 15,6 C 14,4 C 79 % 1016,8 hPa 0,0 l/m 0 min 0 min 182 W/m 9,0 km/h (2 Bft) 97,87 %
10.07.2018 08:16 15,0 C 15,6 C 14,4 C 79 % 1016,6 hPa 0,0 l/m 0 min 0 min 183 W/m 9,0 km/h (2 Bft) 97,87 %
10.07.2018 08:18 15,0 C 15,6 C 15,0 C 79 % 1016,7 hPa 0,0 l/m 0 min 0 min 180 W/m 6,8 km/h (2 Bft) 97,87 %
10.07.2018 08:20 15,1 C 16,1 C 15,0 C 79 % 1016,6 hPa 0,0 l/m 0 min 0 min 189 W/m 9,0 km/h (2 Bft) 97,87 %
10.07.2018 08:22 15,1 C 16,1 C 15,0 C 79 % 1016,7 hPa 0,0 l/m 2 min 0 min 210 W/m 4,5 km/h (1 Bft) 97,83 %
10.07.2018 08:24 15,2 C 16,1 C 15,0 C 79 % 1016,7 hPa 0,0 l/m 2 min 0 min 227 W/m 13,5 km/h (3 Bft) 97,87 %
10.07.2018 08:26 15,2 C 16,1 C 15,0 C 78 % 1016,7 hPa 0,0 l/m 2 min 0 min 230 W/m 11,3 km/h (2 Bft) 97,87 %
10.07.2018 08:28 15,2 C 16,1 C 15,0 C 78 % 1016,7 hPa 0,0 l/m 2 min 0 min 249 W/m 9,0 km/h (2 Bft) 95,74 %
10.07.2018 08:30 15,3 C 16,7 C 15,0 C 78 % 1016,6 hPa 0,0 l/m 2 min 0 min 268 W/m 13,5 km/h (3 Bft) 95,74 %
10.07.2018 08:32 15,3 C 16,7 C 15,0 C 78 % 1016,7 hPa 0,0 l/m 2 min 0 min 273 W/m 18,0 km/h (3 Bft) 93,88 %
10.07.2018 08:34 15,4 C 16,7 C 15,0 C 78 % 1016,6 hPa 0,0 l/m 2 min 0 min 288 W/m 13,5 km/h (3 Bft) 95,65 %
10.07.2018 08:36 15,4 C 16,7 C 15,0 C 77 % 1016,6 hPa 0,0 l/m 2 min 0 min 247 W/m 11,3 km/h (2 Bft) 95,83 %
10.07.2018 08:38 15,5 C 16,7 C 15,0 C 77 % 1016,6 hPa 0,0 l/m 2 min 0 min 219 W/m 6,8 km/h (2 Bft) 93,62 %
10.07.2018 08:40 15,6 C 16,7 C 15,0 C 77 % 1016,6 hPa 0,0 l/m 0 min 0 min 208 W/m 9,0 km/h (2 Bft) 95,74 %
10.07.2018 08:42 15,6 C 16,7 C 15,0 C 77 % 1016,6 hPa 0,0 l/m 0 min 0 min 212 W/m 11,3 km/h (2 Bft) 89,36 %
10.07.2018 08:44 15,6 C 16,7 C 15,0 C 77 % 1016,6 hPa 0,0 l/m 2 min 0 min 250 W/m 9,0 km/h (2 Bft) 95,74 %
10.07.2018 08:46 15,7 C 16,7 C 15,0 C 77 % 1016,6 hPa 0,0 l/m 2 min 0 min 254 W/m 9,0 km/h (2 Bft) 95,65 %
10.07.2018 08:48 15,7 C 16,7 C 15,0 C 76 % 1016,6 hPa 0,0 l/m 0 min 0 min 191 W/m 15,8 km/h (3 Bft) 95,74 %
10.07.2018 08:50 15,7 C 16,7 C 15,0 C 76 % 1016,5 hPa 0,0 l/m 0 min 0 min 196 W/m 11,3 km/h (2 Bft) 95,74 %
10.07.2018 08:52 15,7 C 16,7 C 15,0 C 76 % 1016,5 hPa 0,0 l/m 0 min 0 min 199 W/m 13,5 km/h (3 Bft) 95,83 %
10.07.2018 08:54 15,8 C 16,7 C 15,0 C 76 % 1016,5 hPa 0,0 l/m 0 min 0 min 195 W/m 15,8 km/h (3 Bft) 95,74 %
10.07.2018 08:56 15,8 C 16,1 C 15,0 C 76 % 1016,5 hPa 0,0 l/m 0 min 0 min 199 W/m 11,3 km/h (2 Bft) 93,48 %
10.07.2018 08:58 15,8 C 16,7 C 15,0 C 76 % 1016,5 hPa 0,0 l/m 0 min 0 min 205 W/m 15,8 km/h (3 Bft) 93,62 %
10.07.2018 09:00 15,8 C 16,1 C 15,0 C 75 % 1016,5 hPa 0,0 l/m 0 min 0 min 210 W/m 15,8 km/h (3 Bft) 95,74 %
10.07.2018 09:02 15,8 C 16,1 C 15,0 C 75 % 1016,5 hPa 0,0 l/m 0 min 0 min 205 W/m 11,3 km/h (2 Bft) 93,62 %
10.07.2018 09:04 15,8 C 16,1 C 15,0 C 75 % 1016,5 hPa 0,0 l/m 0 min 0 min 198 W/m 11,3 km/h (2 Bft) 95,74 %
10.07.2018 09:06 15,8 C 16,1 C 15,0 C 75 % 1016,6 hPa 0,0 l/m 0 min 0 min 200 W/m 13,5 km/h (3 Bft) 95,74 %
10.07.2018 09:08 15,8 C 16,1 C 15,0 C 75 % 1016,6 hPa 0,0 l/m 0 min 0 min 202 W/m 18,0 km/h (3 Bft) 93,48 %
10.07.2018 09:10 15,8 C 16,1 C 15,0 C 75 % 1016,6 hPa 0,0 l/m 0 min 0 min 200 W/m 15,8 km/h (3 Bft) 97,87 %
10.07.2018 09:12 15,8 C 16,1 C 15,0 C 75 % 1016,6 hPa 0,0 l/m 0 min 0 min 196 W/m 13,5 km/h (3 Bft) 100,00 %
10.07.2018 09:14 15,8 C 16,1 C 15,0 C 75 % 1016,7 hPa 0,0 l/m 0 min 0 min 198 W/m 15,8 km/h (3 Bft) 100,00 %
10.07.2018 09:16 15,8 C 16,1 C 15,0 C 74 % 1016,6 hPa 0,0 l/m 0 min 0 min 206 W/m 11,3 km/h (2 Bft) 97,87 %
10.07.2018 09:18 15,8 C 16,1 C 15,0 C 75 % 1016,6 hPa 0,0 l/m 0 min 0 min 216 W/m 13,5 km/h (3 Bft) 97,87 %
10.07.2018 09:20 15,8 C 16,1 C 15,0 C 75 % 1016,6 hPa 0,0 l/m 0 min 0 min 220 W/m 11,3 km/h (2 Bft) 100,00 %
10.07.2018 09:22 15,8 C 16,1 C 15,0 C 74 % 1016,6 hPa 0,0 l/m 0 min 0 min 216 W/m 9,0 km/h (2 Bft) 100,00 %
10.07.2018 09:24 15,8 C 16,7 C 15,0 C 74 % 1016,5 hPa 0,0 l/m 0 min 0 min 216 W/m 11,3 km/h (2 Bft) 97,87 %
10.07.2018 09:26 15,8 C 16,7 C 15,0 C 74 % 1016,5 hPa 0,0 l/m 0 min 0 min 216 W/m 9,0 km/h (2 Bft) 100,00 %
10.07.2018 09:28 15,8 C 16,7 C 15,0 C 74 % 1016,5 hPa 0,0 l/m 0 min 0 min 215 W/m 15,8 km/h (3 Bft) 97,87 %
10.07.2018 09:30 15,8 C 16,7 C 15,0 C 74 % 1016,5 hPa 0,0 l/m 0 min 0 min 204 W/m 9,0 km/h (2 Bft) 97,87 %
10.07.2018 09:32 15,8 C 16,1 C 15,0 C 74 % 1016,5 hPa 0,0 l/m 0 min 0 min 189 W/m 15,8 km/h (3 Bft) 100,00 %
10.07.2018 09:34 15,8 C 16,1 C 15,0 C 74 % 1016,4 hPa 0,0 l/m 0 min 0 min 187 W/m 9,0 km/h (2 Bft) 97,87 %
10.07.2018 09:36 15,8 C 16,1 C 15,0 C 74 % 1016,4 hPa 0,0 l/m 0 min 0 min 181 W/m 11,3 km/h (2 Bft) 100,00 %
10.07.2018 09:38 15,8 C 16,1 C 15,0 C 74 % 1016,5 hPa 0,0 l/m 0 min 0 min 178 W/m 11,3 km/h (2 Bft) 100,00 %
10.07.2018 09:40 15,8 C 16,1 C 15,0 C 74 % 1016,5 hPa 0,0 l/m 0 min 0 min 179 W/m 15,8 km/h (3 Bft) 100,00 %
10.07.2018 09:42 15,8 C 16,1 C 15,0 C 74 % 1016,5 hPa 0,0 l/m 0 min 0 min 188 W/m 13,5 km/h (3 Bft) 97,83 %
10.07.2018 09:44 15,8 C 16,1 C 15,0 C 74 % 1016,4 hPa 0,0 l/m 0 min 0 min 198 W/m 11,3 km/h (2 Bft) 100,00 %
10.07.2018 09:46 15,8 C 16,1 C 15,0 C 74 % 1016,5 hPa 0,0 l/m 0 min 0 min 208 W/m 11,3 km/h (2 Bft) 100,00 %
10.07.2018 09:48 15,8 C 16,1 C 15,0 C 74 % 1016,4 hPa 0,0 l/m 0 min 0 min 218 W/m 6,8 km/h (2 Bft) 100,00 %
10.07.2018 09:50 15,8 C 16,7 C 15,0 C 74 % 1016,4 hPa 0,0 l/m 0 min 0 min 238 W/m 13,5 km/h (3 Bft) 100,00 %
10.07.2018 09:52 15,9 C 16,7 C 15,0 C 74 % 1016,2 hPa 0,0 l/m 2 min 0 min 297 W/m 9,0 km/h (2 Bft) 100,00 %
10.07.2018 09:54 15,9 C 16,7 C 15,6 C 74 % 1016,3 hPa 0,0 l/m 2 min 0 min 347 W/m 13,5 km/h (3 Bft) 100,00 %
10.07.2018 09:56 15,9 C 17,2 C 15,6 C 74 % 1016,3 hPa 0,0 l/m 2 min 0 min 444 W/m 11,3 km/h (2 Bft) 100,00 %
10.07.2018 09:58 16,0 C 17,8 C 15,6 C 74 % 1016,3 hPa 0,0 l/m 2 min 0 min 480 W/m 18,0 km/h (3 Bft) 100,00 %
10.07.2018 10:00 16,1 C 17,8 C 15,6 C 74 % 1016,3 hPa 0,0 l/m 2 min 0 min 349 W/m 18,0 km/h (3 Bft) 97,87 %
10.07.2018 10:02 16,1 C 17,8 C 15,6 C 74 % 1016,3 hPa 0,0 l/m 0 min 0 min 291 W/m 6,8 km/h (2 Bft) 97,87 %
10.07.2018 10:04 16,2 C 17,2 C 15,6 C 73 % 1016,2 hPa 0,0 l/m 0 min 0 min 236 W/m 11,3 km/h (2 Bft) 100,00 %
10.07.2018 10:06 16,2 C 17,2 C 15,6 C 73 % 1016,3 hPa 0,0 l/m 0 min 0 min 273 W/m 11,3 km/h (2 Bft) 100,00 %
10.07.2018 10:08 16,3 C 17,8 C 15,6 C 73 % 1016,2 hPa 0,0 l/m 2 min 0 min 321 W/m 6,8 km/h (2 Bft) 100,00 %
10.07.2018 10:10 16,3 C 17,8 C 16,1 C 73 % 1016,2 hPa 0,0 l/m 2 min 0 min 397 W/m 13,5 km/h (3 Bft) 100,00 %
10.07.2018 10:12 16,4 C 18,3 C 16,1 C 73 % 1016,2 hPa 0,0 l/m 2 min 0 min 335 W/m 11,3 km/h (2 Bft) 97,87 %
10.07.2018 10:14 16,4 C 17,8 C 16,1 C 72 % 1016,2 hPa 0,0 l/m 2 min 0 min 346 W/m 13,5 km/h (3 Bft) 97,87 %
10.07.2018 10:16 16,5 C 17,8 C 16,1 C 72 % 1016,2 hPa 0,0 l/m 2 min 0 min 324 W/m 11,3 km/h (2 Bft) 95,74 %
10.07.2018 10:18 16,6 C 17,8 C 15,6 C 72 % 1016,1 hPa 0,0 l/m 0 min 0 min 282 W/m 18,0 km/h (3 Bft) 97,83 %
10.07.2018 10:20 16,6 C 17,2 C 15,6 C 71 % 1016,1 hPa 0,0 l/m 0 min 0 min 264 W/m 6,8 km/h (2 Bft) 100,00 %
10.07.2018 10:22 16,6 C 17,2 C 16,1 C 72 % 1016,1 hPa 0,0 l/m 0 min 0 min 246 W/m 11,3 km/h (2 Bft) 100,00 %
10.07.2018 10:24 16,6 C 17,2 C 15,6 C 72 % 1016,1 hPa 0,0 l/m 0 min 0 min 232 W/m 6,8 km/h (2 Bft) 97,87 %
10.07.2018 10:26 16,6 C 17,2 C 15,6 C 71 % 1016,1 hPa 0,0 l/m 0 min 0 min 229 W/m 6,8 km/h (2 Bft) 97,87 %
10.07.2018 10:28 16,6 C 17,2 C 15,6 C 72 % 1016,1 hPa 0,0 l/m 0 min 0 min 217 W/m 13,5 km/h (3 Bft) 100,00 %
10.07.2018 10:30 16,6 C 17,2 C 15,6 C 72 % 1016,0 hPa 0,0 l/m 0 min 0 min 205 W/m 9,0 km/h (2 Bft) 100,00 %
10.07.2018 10:32 16,6 C 17,2 C 15,6 C 72 % 1016,1 hPa 0,0 l/m 0 min 0 min 227 W/m 15,8 km/h (3 Bft) 97,87 %
10.07.2018 10:34 16,7 C 17,2 C 16,1 C 72 % 1016,0 hPa 0,0 l/m 0 min 0 min 276 W/m 6,8 km/h (2 Bft) 97,87 %
10.07.2018 10:36 16,7 C 17,8 C 16,1 C 73 % 1015,9 hPa 0,0 l/m 0 min 0 min 288 W/m 6,8 km/h (2 Bft) 95,74 %
10.07.2018 10:38 16,7 C 17,8 C 16,1 C 73 % 1015,9 hPa 0,0 l/m 0 min 0 min 266 W/m 13,5 km/h (3 Bft) 93,62 %
10.07.2018 10:40 16,8 C 17,8 C 16,1 C 73 % 1015,9 hPa 0,0 l/m 0 min 0 min 238 W/m 11,3 km/h (2 Bft) 97,87 %
10.07.2018 10:42 16,8 C 17,2 C 16,1 C 73 % 1015,9 hPa 0,0 l/m 0 min 0 min 199 W/m 11,3 km/h (2 Bft) 97,83 %
10.07.2018 10:44 16,8 C 17,2 C 16,1 C 73 % 1015,9 hPa 0,0 l/m 0 min 0 min 161 W/m 6,8 km/h (2 Bft) 97,87 %
10.07.2018 10:46 16,8 C 17,2 C 16,1 C 72 % 1015,8 hPa 0,0 l/m 0 min 0 min 147 W/m 9,0 km/h (2 Bft) 97,87 %
10.07.2018 10:48 16,8 C 16,7 C 15,6 C 72 % 1015,9 hPa 0,0 l/m 0 min 0 min 150 W/m 15,8 km/h (3 Bft) 100,00 %
10.07.2018 10:50 16,8 C 16,7 C 15,6 C 71 % 1015,9 hPa 0,0 l/m 0 min 0 min 150 W/m 6,8 km/h (2 Bft) 97,87 %
10.07.2018 10:52 16,8 C 16,7 C 15,6 C 71 % 1015,9 hPa 0,0 l/m 0 min 0 min 153 W/m 13,5 km/h (3 Bft) 97,87 %
10.07.2018 10:54 16,8 C 16,7 C 15,6 C 71 % 1015,9 hPa 0,0 l/m 0 min 0 min 148 W/m 15,8 km/h (3 Bft) 97,22 %
10.07.2018 10:56 16,7 C 16,7 C 15,6 C 71 % 1015,9 hPa 0,0 l/m 0 min 0 min 144 W/m 13,5 km/h (3 Bft) 97,83 %
10.07.2018 10:58 16,7 C 16,7 C 15,6 C 71 % 1016,0 hPa 0,0 l/m 0 min 2 min 133 W/m 13,5 km/h (3 Bft) 97,87 %
10.07.2018 11:00 16,7 C 16,1 C 15,6 C 72 % 1015,9 hPa 0,0 l/m 0 min 2 min 120 W/m 13,5 km/h (3 Bft) 95,74 %
10.07.2018 11:02 16,6 C 16,1 C 15,6 C 73 % 1016,1 hPa 0,0 l/m 0 min 0 min 115 W/m 18,0 km/h (3 Bft) 93,62 %
10.07.2018 11:04 16,6 C 16,1 C 15,6 C 73 % 1016,0 hPa 0,0 l/m 0 min 0 min 106 W/m 11,3 km/h (2 Bft) 93,62 %
10.07.2018 11:06 16,6 C 16,1 C 15,0 C 73 % 1015,9 hPa 0,0 l/m 0 min 0 min 105 W/m 9,0 km/h (2 Bft) 95,74 %
10.07.2018 11:08 16,5 C 15,6 C 15,0 C 73 % 1015,9 hPa 0,0 l/m 0 min 0 min 111 W/m 15,8 km/h (3 Bft) 95,65 %
10.07.2018 11:10 16,5 C 15,6 C 15,0 C 74 % 1015,8 hPa 0,0 l/m 0 min 2 min 114 W/m 9,0 km/h (2 Bft) 97,87 %
10.07.2018 11:12 16,4 C 15,6 C 15,6 C 74 % 1015,9 hPa 0,0 l/m 0 min 0 min 116 W/m 6,8 km/h (2 Bft) 94,00 %
10.07.2018 11:14 16,4 C 16,1 C 15,6 C 74 % 1015,9 hPa 0,0 l/m 0 min 0 min 117 W/m 11,3 km/h (2 Bft) 93,62 %
10.07.2018 11:16 16,4 C 16,1 C 15,6 C 74 % 1016,0 hPa 0,0 l/m 0 min 0 min 126 W/m 9,0 km/h (2 Bft) 93,62 %
10.07.2018 11:18 16,3 C 16,1 C 15,6 C 74 % 1016,1 hPa 0,0 l/m 0 min 0 min 146 W/m 11,3 km/h (2 Bft) 93,48 %
10.07.2018 11:20 16,3 C 16,1 C 15,6 C 74 % 1016,0 hPa 0,0 l/m 0 min 0 min 160 W/m 9,0 km/h (2 Bft) 93,62 %
10.07.2018 11:22 16,3 C 16,1 C 15,6 C 74 % 1015,9 hPa 0,0 l/m 0 min 0 min 171 W/m 9,0 km/h (2 Bft) 95,74 %
10.07.2018 11:24 16,3 C 16,7 C 15,6 C 74 % 1015,9 hPa 0,0 l/m 0 min 0 min 178 W/m 6,8 km/h (2 Bft) 95,74 %
10.07.2018 11:26 16,3 C 16,7 C 15,6 C 74 % 1015,8 hPa 0,0 l/m 0 min 0 min 187 W/m 9,0 km/h (2 Bft) 93,62 %
10.07.2018 11:28 16,3 C 16,7 C 15,6 C 74 % 1015,8 hPa 0,0 l/m 0 min 0 min 198 W/m 4,5 km/h (1 Bft) 93,62 %
10.07.2018 11:30 16,3 C 16,7 C 16,1 C 74 % 1015,8 hPa 0,0 l/m 0 min 0 min 197 W/m 11,3 km/h (2 Bft) 93,48 %
10.07.2018 11:32 16,4 C 16,7 C 16,1 C 74 % 1015,8 hPa 0,0 l/m 0 min 0 min 198 W/m 6,8 km/h (2 Bft) 95,92 %
10.07.2018 11:34 16,4 C 16,7 C 16,1 C 74 % 1015,8 hPa 0,0 l/m 0 min 0 min 201 W/m 9,0 km/h (2 Bft) 95,74 %
10.07.2018 11:36 16,4 C 16,7 C 16,1 C 74 % 1015,7 hPa 0,0 l/m 0 min 0 min 200 W/m 11,3 km/h (2 Bft) 91,49 %
10.07.2018 11:38 16,5 C 16,1 C 16,1 C 74 % 1015,8 hPa 0,0 l/m 0 min 2 min 180 W/m 11,3 km/h (2 Bft) 95,74 %
10.07.2018 11:40 16,5 C 15,6 C 15,6 C 75 % 1015,7 hPa 0,0 l/m 0 min 2 min 166 W/m 9,0 km/h (2 Bft) 95,74 %
10.07.2018 11:42 16,5 C 15,6 C 15,6 C 76 % 1015,7 hPa 0,0 l/m 0 min 2 min 155 W/m 13,5 km/h (3 Bft) 95,65 %
10.07.2018 11:44 16,5 C 15,6 C 15,6 C 75 % 1015,7 hPa 0,0 l/m 0 min 0 min 137 W/m 9,0 km/h (2 Bft) 97,87 %
10.07.2018 11:46 16,5 C 15,6 C 15,6 C 75 % 1015,8 hPa 0,0 l/m 0 min 0 min 134 W/m 11,3 km/h (2 Bft) 93,62 %
10.07.2018 11:48 16,4 C 15,6 C 15,6 C 75 % 1015,7 hPa 0,0 l/m 0 min 0 min 135 W/m 9,0 km/h (2 Bft) 97,87 %
10.07.2018 11:50 16,4 C 16,1 C 15,0 C 74 % 1015,7 hPa 0,0 l/m 0 min 0 min 135 W/m 6,8 km/h (2 Bft) 97,87 %
10.07.2018 11:52 16,4 C 16,1 C 15,6 C 75 % 1015,6 hPa 0,0 l/m 0 min 0 min 131 W/m 4,5 km/h (1 Bft) 95,65 %
10.07.2018 11:54 16,4 C 16,1 C 15,6 C 75 % 1015,6 hPa 0,0 l/m 0 min 0 min 130 W/m 6,8 km/h (2 Bft) 97,87 %
10.07.2018 11:56 16,4 C 16,1 C 15,6 C 74 % 1015,6 hPa 0,0 l/m 0 min 0 min 126 W/m 4,5 km/h (1 Bft) 95,74 %
10.07.2018 11:58 16,3 C 16,1 C 15,6 C 74 % 1015,6 hPa 0,0 l/m 0 min 0 min 131 W/m 9,0 km/h (2 Bft) 97,87 %
10.07.2018 12:00 16,3 C 16,1 C 15,6 C 74 % 1015,6 hPa 0,0 l/m 0 min 0 min 139 W/m 6,8 km/h (2 Bft) 95,74 %
10.07.2018 12:02 16,3 C 16,7 C 15,6 C 74 % 1015,6 hPa 0,0 l/m 0 min 0 min 148 W/m 9,0 km/h (2 Bft) 95,74 %
10.07.2018 12:04 16,4 C 16,7 C 15,6 C 74 % 1015,6 hPa 0,0 l/m 0 min 0 min 168 W/m 6,8 km/h (2 Bft) 97,87 %
10.07.2018 12:07 16,4 C 16,7 C 16,1 C 73 % 1015,5 hPa 0,0 l/m 0 min 3 min 169 W/m 6,8 km/h (2 Bft) 97,87 %
10.07.2018 12:08 16,4 C 16,7 C 16,1 C 73 % 1015,5 hPa 0,0 l/m 0 min 1 min 175 W/m 13,5 km/h (3 Bft) 97,87 %
10.07.2018 12:10 16,4 C 16,7 C 15,6 C 73 % 1015,5 hPa 0,0 l/m 0 min 0 min 157 W/m 13,5 km/h (3 Bft) 95,74 %
10.07.2018 12:12 16,4 C 16,1 C 15,6 C 73 % 1015,5 hPa 0,0 l/m 0 min 0 min 143 W/m 9,0 km/h (2 Bft) 97,87 %
10.07.2018 12:14 16,4 C 16,1 C 15,6 C 73 % 1015,4 hPa 0,0 l/m 0 min 0 min 140 W/m 13,5 km/h (3 Bft) 97,87 %
10.07.2018 12:16 16,4 C 16,1 C 15,6 C 73 % 1015,5 hPa 0,0 l/m 0 min 0 min 153 W/m 15,8 km/h (3 Bft) 97,83 %
10.07.2018 12:18 16,4 C 16,7 C 15,6 C 73 % 1015,4 hPa 0,0 l/m 0 min 0 min 157 W/m 11,3 km/h (2 Bft) 97,87 %
10.07.2018 12:20 16,4 C 16,7 C 15,6 C 73 % 1015,4 hPa 0,0 l/m 0 min 0 min 148 W/m 13,5 km/h (3 Bft) 97,87 %
10.07.2018 12:22 16,4 C 16,7 C 15,6 C 74 % 1015,5 hPa 0,0 l/m 0 min 0 min 128 W/m 9,0 km/h (2 Bft) 97,87 %
10.07.2018 12:24 16,4 C 16,7 C 15,6 C 73 % 1015,4 hPa 0,0 l/m 0 min 0 min 110 W/m 6,8 km/h (2 Bft) 100,00 %
10.07.2018 12:26 16,4 C 16,1 C 16,1 C 73 % 1015,4 hPa 0,0 l/m 0 min 0 min 99 W/m 11,3 km/h (2 Bft) 100,00 %
10.07.2018 12:28 16,4 C 16,1 C 15,6 C 74 % 1015,4 hPa 0,0 l/m 0 min 0 min 93 W/m 13,5 km/h (3 Bft) 100,00 %
10.07.2018 12:30 16,4 C 16,1 C 15,6 C 73 % 1015,4 hPa 0,0 l/m 0 min 0 min 97 W/m 13,5 km/h (3 Bft) 97,87 %
10.07.2018 12:32 16,4 C 16,1 C 15,6 C 73 % 1015,3 hPa 0,0 l/m 0 min 0 min 105 W/m 9,0 km/h (2 Bft) 100,00 %
10.07.2018 12:34 16,4 C 16,1 C 15,6 C 73 % 1015,2 hPa 0,0 l/m 0 min 0 min 138 W/m 9,0 km/h (2 Bft) 100,00 %
10.07.2018 12:36 16,4 C 16,7 C 16,1 C 73 % 1015,3 hPa 0,0 l/m 0 min 0 min 180 W/m 6,8 km/h (2 Bft) 97,87 %
10.07.2018 12:38 16,5 C 16,7 C 16,1 C 73 % 1015,2 hPa 0,0 l/m 0 min 0 min 194 W/m 9,0 km/h (2 Bft) 100,00 %
10.07.2018 12:40 16,5 C 16,7 C 16,1 C 73 % 1015,4 hPa 0,0 l/m 0 min 0 min 170 W/m 6,8 km/h (2 Bft) 97,83 %
10.07.2018 12:42 16,5 C 16,7 C 16,1 C 73 % 1015,3 hPa 0,0 l/m 0 min 0 min 154 W/m 6,8 km/h (2 Bft) 100,00 %
10.07.2018 12:44 16,5 C 16,7 C 16,1 C 73 % 1015,3 hPa 0,0 l/m 0 min 0 min 135 W/m 9,0 km/h (2 Bft) 100,00 %
10.07.2018 12:46 16,6 C 16,7 C 16,1 C 73 % 1015,3 hPa 0,0 l/m 0 min 0 min 116 W/m 11,3 km/h (2 Bft) 100,00 %
10.07.2018 12:48 16,6 C 16,7 C 16,1 C 73 % 1015,3 hPa 0,0 l/m 0 min 0 min 126 W/m 11,3 km/h (2 Bft) 100,00 %
10.07.2018 12:50 16,6 C 16,7 C 16,1 C 73 % 1015,3 hPa 0,0 l/m 0 min 0 min 150 W/m 13,5 km/h (3 Bft) 100,00 %
10.07.2018 12:52 16,6 C 16,7 C 16,1 C 73 % 1015,3 hPa 0,0 l/m 0 min 0 min 161 W/m 6,8 km/h (2 Bft) 100,00 %
10.07.2018 12:54 16,6 C 16,7 C 16,1 C 73 % 1015,4 hPa 0,0 l/m 0 min 0 min 188 W/m 11,3 km/h (2 Bft) 100,00 %
10.07.2018 12:56 16,6 C 16,7 C 16,1 C 73 % 1015,3 hPa 0,0 l/m 0 min 0 min 187 W/m 9,0 km/h (2 Bft) 100,00 %
10.07.2018 12:58 16,7 C 16,7 C 16,1 C 73 % 1015,3 hPa 0,0 l/m 0 min 0 min 151 W/m 11,3 km/h (2 Bft) 100,00 %
10.07.2018 13:00 16,7 C 16,7 C 16,1 C 73 % 1015,3 hPa 0,0 l/m 0 min 0 min 152 W/m 6,8 km/h (2 Bft) 100,00 %
10.07.2018 13:02 16,7 C 16,7 C 16,1 C 73 % 1015,2 hPa 0,0 l/m 0 min 0 min 184 W/m 18,0 km/h (3 Bft) 100,00 %
10.07.2018 13:04 16,7 C 16,7 C 16,1 C 74 % 1015,2 hPa 0,0 l/m 0 min 0 min 187 W/m 11,3 km/h (2 Bft) 100,00 %
10.07.2018 13:06 16,7 C 17,2 C 16,1 C 74 % 1015,2 hPa 0,0 l/m 0 min 0 min 177 W/m 6,8 km/h (2 Bft) 100,00 %
10.07.2018 13:08 16,8 C 17,2 C 16,1 C 74 % 1015,2 hPa 0,0 l/m 0 min 0 min 190 W/m 11,3 km/h (2 Bft) 100,00 %
10.07.2018 13:10 16,8 C 17,2 C 16,1 C 74 % 1015,1 hPa 0,0 l/m 0 min 0 min 192 W/m 13,5 km/h (3 Bft) 100,00 %
10.07.2018 13:12 16,8 C 17,2 C 16,7 C 74 % 1015,0 hPa 0,0 l/m 0 min 0 min 215 W/m 11,3 km/h (2 Bft) 97,87 %
10.07.2018 13:14 16,9 C 17,2 C 16,7 C 73 % 1014,8 hPa 0,0 l/m 0 min 0 min 314 W/m 20,3 km/h (4 Bft) 100,00 %
10.07.2018 13:16 16,9 C 17,8 C 16,7 C 73 % 1015,0 hPa 0,0 l/m 0 min 0 min 335 W/m 11,3 km/h (2 Bft) 100,00 %
10.07.2018 13:18 17,0 C 17,8 C 16,7 C 73 % 1015,0 hPa 0,0 l/m 0 min 0 min 320 W/m 15,8 km/h (3 Bft) 100,00 %
10.07.2018 13:20 17,0 C 17,8 C 16,7 C 73 % 1015,0 hPa 0,0 l/m 0 min 0 min 255 W/m 13,5 km/h (3 Bft) 100,00 %
10.07.2018 13:22 17,1 C 17,8 C 16,7 C 74 % 1015,0 hPa 0,0 l/m 0 min 0 min 218 W/m 13,5 km/h (3 Bft) 100,00 %
10.07.2018 13:24 17,2 C 17,8 C 16,7 C 74 % 1014,8 hPa 0,0 l/m 0 min 0 min 217 W/m 9,0 km/h (2 Bft) 100,00 %
10.07.2018 13:26 17,2 C 17,8 C 16,7 C 74 % 1014,8 hPa 0,0 l/m 0 min 0 min 225 W/m 9,0 km/h (2 Bft) 97,87 %
10.07.2018 13:28 17,2 C 17,2 C 16,7 C 73 % 1014,9 hPa 0,0 l/m 0 min 0 min 223 W/m 11,3 km/h (2 Bft) 97,87 %
10.07.2018 13:30 17,2 C 17,8 C 16,7 C 73 % 1014,8 hPa 0,0 l/m 0 min 0 min 244 W/m 11,3 km/h (2 Bft) 97,87 %
10.07.2018 13:32 17,2 C 17,8 C 16,7 C 73 % 1014,8 hPa 0,0 l/m 0 min 0 min 265 W/m 11,3 km/h (2 Bft) 100,00 %
10.07.2018 13:34 17,3 C 17,8 C 16,7 C 73 % 1014,7 hPa 0,0 l/m 0 min 0 min 253 W/m 13,5 km/h (3 Bft) 93,62 %
10.07.2018 13:36 17,3 C 17,8 C 16,7 C 73 % 1014,8 hPa 0,0 l/m 0 min 0 min 227 W/m 13,5 km/h (3 Bft) 97,87 %
10.07.2018 13:38 17,3 C 17,8 C 16,7 C 73 % 1014,9 hPa 0,0 l/m 0 min 0 min 180 W/m 11,3 km/h (2 Bft) 95,65 %
10.07.2018 13:40 17,3 C 17,2 C 16,7 C 73 % 1014,9 hPa 0,0 l/m 0 min 0 min 136 W/m 6,8 km/h (2 Bft) 93,62 %
10.07.2018 13:42 17,4 C 17,2 C 16,7 C 73 % 1014,8 hPa 0,0 l/m 0 min 0 min 170 W/m 11,3 km/h (2 Bft) 97,87 %
10.07.2018 13:44 17,4 C 17,2 C 16,7 C 73 % 1014,8 hPa 0,0 l/m 0 min 0 min 226 W/m 15,8 km/h (3 Bft) 97,87 %
10.07.2018 13:46 17,3 C 17,2 C 16,7 C 74 % 1014,8 hPa 0,0 l/m 0 min 0 min 212 W/m 15,8 km/h (3 Bft) 97,87 %
10.07.2018 13:48 17,3 C 17,2 C 16,7 C 74 % 1014,8 hPa 0,0 l/m 0 min 0 min 173 W/m 15,8 km/h (3 Bft) 95,74 %
10.07.2018 13:50 17,3 C 16,7 C 16,7 C 74 % 1014,8 hPa 0,0 l/m 0 min 2 min 158 W/m 9,0 km/h (2 Bft) 95,65 %
10.07.2018 13:52 17,3 C 16,1 C 16,1 C 75 % 1014,9 hPa 0,0 l/m 0 min 2 min 132 W/m 15,8 km/h (3 Bft) 95,74 %
10.07.2018 13:54 17,3 C 16,1 C 15,6 C 76 % 1014,8 hPa 0,0 l/m 0 min 2 min 103 W/m 15,8 km/h (3 Bft) 91,49 %
10.07.2018 13:56 17,2 C 15,6 C 15,6 C 77 % 1014,9 hPa 0,0 l/m 0 min 2 min 110 W/m 13,5 km/h (3 Bft) 93,62 %
10.07.2018 13:58 17,2 C 15,0 C 15,6 C 78 % 1015,0 hPa 0,0 l/m 0 min 2 min 128 W/m 9,0 km/h (2 Bft) 95,74 %
10.07.2018 14:00 17,1 C 15,0 C 15,6 C 79 % 1014,9 hPa 0,0 l/m 0 min 2 min 138 W/m 11,3 km/h (2 Bft) 95,65 %
10.07.2018 14:02 17,1 C 15,0 C 15,6 C 79 % 1015,0 hPa 0,0 l/m 0 min 0 min 122 W/m 9,0 km/h (2 Bft) 95,74 %
10.07.2018 14:04 16,9 C 15,6 C 15,6 C 79 % 1015,1 hPa 0,0 l/m 0 min 2 min 111 W/m 13,5 km/h (3 Bft) 95,74 %
10.07.2018 14:06 16,9 C 15,0 C 15,6 C 80 % 1015,1 hPa 0,0 l/m 0 min 2 min 102 W/m 9,0 km/h (2 Bft) 95,74 %
10.07.2018 14:08 16,8 C 15,0 C 15,6 C 80 % 1015,0 hPa 0,0 l/m 0 min 2 min 105 W/m 9,0 km/h (2 Bft) 93,62 %
10.07.2018 14:10 16,8 C 15,0 C 15,0 C 81 % 1015,0 hPa 0,0 l/m 0 min 2 min 131 W/m 15,8 km/h (3 Bft) 91,49 %
10.07.2018 14:12 16,7 C 15,0 C 15,0 C 82 % 1015,1 hPa 0,0 l/m 0 min 2 min 165 W/m 6,8 km/h (2 Bft) 95,65 %
10.07.2018 14:14 16,7 C 14,4 C 15,0 C 82 % 1015,0 hPa 0,0 l/m 0 min 2 min 177 W/m 6,8 km/h (2 Bft) 95,74 %
10.07.2018 14:16 16,6 C 14,4 C 15,0 C 83 % 1015,0 hPa 0,0 l/m 0 min 2 min 136 W/m 9,0 km/h (2 Bft) 93,62 %
10.07.2018 14:18 16,6 C 14,4 C 15,0 C 83 % 1015,0 hPa 0,0 l/m 0 min 0 min 145 W/m 9,0 km/h (2 Bft) 95,74 %
10.07.2018 14:20 16,5 C 15,0 C 15,0 C 83 % 1015,0 hPa 0,0 l/m 0 min 0 min 135 W/m 6,8 km/h (2 Bft) 95,74 %
10.07.2018 14:22 16,4 C 15,0 C 15,0 C 84 % 1015,0 hPa 0,0 l/m 0 min 0 min 144 W/m 11,3 km/h (2 Bft) 93,75 %
10.07.2018 14:24 16,3 C 15,0 C 15,0 C 84 % 1015,0 hPa 0,0 l/m 0 min 0 min 123 W/m 9,0 km/h (2 Bft) 95,65 %
10.07.2018 14:26 16,3 C 15,6 C 15,0 C 84 % 1014,9 hPa 0,0 l/m 0 min 0 min 116 W/m 6,8 km/h (2 Bft) 95,74 %
10.07.2018 14:28 16,3 C 15,6 C 15,0 C 84 % 1014,9 hPa 0,0 l/m 0 min 0 min 129 W/m 6,8 km/h (2 Bft) 97,87 %
10.07.2018 14:30 16,2 C 15,6 C 15,0 C 84 % 1014,9 hPa 0,0 l/m 0 min 0 min 155 W/m 9,0 km/h (2 Bft) 97,87 %
10.07.2018 14:32 16,2 C 16,1 C 15,0 C 84 % 1014,9 hPa 0,0 l/m 0 min 0 min 152 W/m 9,0 km/h (2 Bft) 93,62 %
10.07.2018 14:34 16,2 C 16,1 C 15,6 C 84 % 1014,9 hPa 0,0 l/m 0 min 0 min 178 W/m 9,0 km/h (2 Bft) 97,87 %
10.07.2018 14:36 16,2 C 16,1 C 15,6 C 84 % 1014,8 hPa 0,0 l/m 0 min 0 min 162 W/m 11,3 km/h (2 Bft) 97,83 %
10.07.2018 14:38 16,2 C 16,1 C 15,6 C 84 % 1014,8 hPa 0,0 l/m 0 min 0 min 197 W/m 6,8 km/h (2 Bft) 97,87 %
10.07.2018 14:40 16,2 C 16,7 C 16,1 C 84 % 1014,8 hPa 0,0 l/m 0 min 0 min 302 W/m 4,5 km/h (1 Bft) 97,87 %
10.07.2018 14:42 16,2 C 17,2 C 16,1 C 85 % 1014,7 hPa 0,0 l/m 0 min 0 min 385 W/m 13,5 km/h (3 Bft) 100,00 %
10.07.2018 14:44 16,3 C 17,8 C 16,1 C 85 % 1014,7 hPa 0,0 l/m 0 min 0 min 343 W/m 9,0 km/h (2 Bft) 100,00 %
10.07.2018 14:46 16,3 C 17,8 C 16,7 C 85 % 1014,6 hPa 0,0 l/m 0 min 0 min 405 W/m 9,0 km/h (2 Bft) 100,00 %
10.07.2018 14:48 16,4 C 18,3 C 16,7 C 85 % 1014,6 hPa 0,0 l/m 2 min 0 min 589 W/m 9,0 km/h (2 Bft) 97,83 %
10.07.2018 14:50 16,6 C 18,9 C 16,7 C 85 % 1014,5 hPa 0,0 l/m 2 min 0 min 905 W/m 13,5 km/h (3 Bft) 97,87 %
10.07.2018 14:52 16,8 C 18,9 C 17,2 C 85 % 1014,4 hPa 0,0 l/m 2 min 0 min 755 W/m 9,0 km/h (2 Bft) 97,87 %
10.07.2018 14:54 16,9 C 18,9 C 17,2 C 84 % 1014,6 hPa 0,0 l/m 2 min 0 min 450 W/m 9,0 km/h (2 Bft) 97,87 %
10.07.2018 14:56 17,1 C 19,4 C 17,2 C 83 % 1014,4 hPa 0,0 l/m 2 min 0 min 450 W/m 13,5 km/h (3 Bft) 95,74 %
10.07.2018 14:58 17,3 C 20,0 C 17,8 C 83 % 1014,4 hPa 0,0 l/m 2 min 0 min 450 W/m 6,8 km/h (2 Bft) 97,87 %
10.07.2018 15:00 17,4 C 20,0 C 17,8 C 83 % 1014,5 hPa 0,0 l/m 2 min 0 min 446 W/m 9,0 km/h (2 Bft) 97,83 %
10.07.2018 15:02 17,6 C 20,0 C 17,8 C 82 % 1014,5 hPa 0,0 l/m 2 min 0 min 427 W/m 6,8 km/h (2 Bft) 95,74 %
10.07.2018 15:04 17,7 C 20,0 C 17,8 C 82 % 1014,5 hPa 0,0 l/m 0 min 0 min 350 W/m 11,3 km/h (2 Bft) 97,87 %
10.07.2018 15:08 17,9 C 19,4 C 17,8 C 80 % 1014,2 hPa 0,0 l/m 0 min 0 min 277 W/m 11,3 km/h (2 Bft) 97,87 %
10.07.2018 15:10 18,1 C 19,4 C 17,8 C 80 % 1014,2 hPa 0,0 l/m 0 min 0 min 292 W/m 15,8 km/h (3 Bft) 95,65 %
10.07.2018 15:12 18,2 C 19,4 C 17,8 C 79 % 1014,3 hPa 0,0 l/m 0 min 0 min 261 W/m 15,8 km/h (3 Bft) 97,87 %
10.07.2018 15:14 18,2 C 19,4 C 17,8 C 79 % 1014,4 hPa 0,0 l/m 0 min 0 min 207 W/m 22,5 km/h (4 Bft) 97,87 %
10.07.2018 15:16 18,3 C 18,9 C 17,8 C 78 % 1014,1 hPa 0,0 l/m 0 min 0 min 180 W/m 13,5 km/h (3 Bft) 97,87 %
10.07.2018 15:18 18,3 C 18,9 C 17,8 C 78 % 1014,1 hPa 0,0 l/m 0 min 0 min 110 W/m 6,8 km/h (2 Bft) 97,87 %
10.07.2018 15:20 18,3 C 18,9 C 17,8 C 78 % 1014,2 hPa 0,0 l/m 0 min 0 min 91 W/m 13,5 km/h (3 Bft) 95,74 %
10.07.2018 15:22 18,4 C 18,3 C 17,2 C 78 % 1014,2 hPa 0,0 l/m 0 min 0 min 93 W/m 11,3 km/h (2 Bft) 97,83 %
10.07.2018 15:24 18,3 C 17,8 C 17,2 C 77 % 1014,1 hPa 0,0 l/m 0 min 0 min 130 W/m 15,8 km/h (3 Bft) 97,87 %
10.07.2018 15:26 18,3 C 17,8 C 17,2 C 77 % 1014,1 hPa 0,0 l/m 0 min 0 min 153 W/m 15,8 km/h (3 Bft) 97,87 %
10.07.2018 15:28 18,2 C 17,8 C 17,2 C 77 % 1014,1 hPa 0,0 l/m 0 min 0 min 166 W/m 11,3 km/h (2 Bft) 95,74 %
10.07.2018 15:30 18,1 C 17,8 C 17,2 C 77 % 1014,1 hPa 0,0 l/m 0 min 0 min 251 W/m 11,3 km/h (2 Bft) 97,87 %
10.07.2018 15:32 18,1 C 18,3 C 17,2 C 78 % 1013,9 hPa 0,0 l/m 0 min 0 min 326 W/m 11,3 km/h (2 Bft) 97,87 %
10.07.2018 15:34 18,1 C 18,9 C 17,8 C 78 % 1013,9 hPa 0,0 l/m 0 min 0 min 369 W/m 9,0 km/h (2 Bft) 97,83 %
10.07.2018 15:36 18,2 C 19,4 C 17,8 C 78 % 1013,8 hPa 0,0 l/m 2 min 0 min 385 W/m 13,5 km/h (3 Bft) 97,92 %
10.07.2018 15:38 18,2 C 20,0 C 17,8 C 78 % 1013,9 hPa 0,0 l/m 2 min 0 min 449 W/m 9,0 km/h (2 Bft) 100,00 %
10.07.2018 15:40 18,3 C 20,0 C 17,8 C 79 % 1013,9 hPa 0,0 l/m 2 min 0 min 454 W/m 6,8 km/h (2 Bft) 100,00 %
10.07.2018 15:42 18,4 C 20,0 C 18,3 C 78 % 1014,0 hPa 0,0 l/m 2 min 0 min 458 W/m 11,3 km/h (2 Bft) 97,87 %
10.07.2018 15:44 18,4 C 20,0 C 18,3 C 78 % 1013,9 hPa 0,0 l/m 2 min 0 min 471 W/m 11,3 km/h (2 Bft) 97,87 %
10.07.2018 15:46 18,5 C 20,0 C 18,3 C 78 % 1013,9 hPa 0,0 l/m 2 min 0 min 474 W/m 9,0 km/h (2 Bft) 100,00 %
10.07.2018 15:48 18,6 C 19,4 C 18,3 C 78 % 1013,8 hPa 0,0 l/m 0 min 0 min 229 W/m 11,3 km/h (2 Bft) 97,83 %
10.07.2018 15:50 18,7 C 18,9 C 17,8 C 78 % 1013,9 hPa 0,0 l/m 0 min 0 min 142 W/m 18,0 km/h (3 Bft) 100,00 %
10.07.2018 15:52 18,7 C 18,9 C 17,8 C 77 % 1013,8 hPa 0,0 l/m 0 min 0 min 134 W/m 11,3 km/h (2 Bft) 100,00 %
10.07.2018 15:54 18,7 C 18,3 C 17,8 C 77 % 1013,9 hPa 0,0 l/m 0 min 0 min 218 W/m 15,8 km/h (3 Bft) 97,14 %
10.07.2018 15:56 18,7 C 18,3 C 17,8 C 77 % 1013,9 hPa 0,0 l/m 0 min 0 min 261 W/m 18,0 km/h (3 Bft) 100,00 %
10.07.2018 15:58 18,6 C 18,9 C 17,8 C 77 % 1013,8 hPa 0,0 l/m 0 min 0 min 328 W/m 11,3 km/h (2 Bft) 100,00 %
10.07.2018 16:00 18,6 C 18,9 C 17,8 C 77 % 1013,6 hPa 0,0 l/m 0 min 0 min 284 W/m 11,3 km/h (2 Bft) 100,00 %
10.07.2018 16:02 18,6 C 19,4 C 17,8 C 78 % 1013,7 hPa 0,0 l/m 2 min 0 min 374 W/m 11,3 km/h (2 Bft) 97,87 %
10.07.2018 16:04 18,7 C 19,4 C 17,8 C 78 % 1013,8 hPa 0,0 l/m 0 min 0 min 357 W/m 11,3 km/h (2 Bft) 100,00 %
10.07.2018 16:06 18,7 C 19,4 C 17,8 C 78 % 1013,8 hPa 0,0 l/m 0 min 0 min 314 W/m 9,0 km/h (2 Bft) 100,00 %
10.07.2018 16:08 18,7 C 19,4 C 17,8 C 78 % 1013,6 hPa 0,0 l/m 0 min 0 min 303 W/m 22,5 km/h (4 Bft) 97,87 %
10.07.2018 16:10 18,7 C 18,9 C 17,8 C 78 % 1013,6 hPa 0,0 l/m 0 min 0 min 287 W/m 11,3 km/h (2 Bft) 100,00 %
10.07.2018 16:12 18,7 C 18,9 C 17,8 C 77 % 1013,6 hPa 0,0 l/m 0 min 0 min 272 W/m 13,5 km/h (3 Bft) 97,83 %
10.07.2018 16:14 18,7 C 19,4 C 17,8 C 77 % 1013,5 hPa 0,0 l/m 0 min 0 min 355 W/m 11,3 km/h (2 Bft) 97,87 %
10.07.2018 16:16 18,7 C 20,0 C 17,8 C 77 % 1013,4 hPa 0,0 l/m 2 min 0 min 362 W/m 11,3 km/h (2 Bft) 95,74 %
10.07.2018 16:18 18,8 C 19,4 C 17,8 C 77 % 1013,5 hPa 0,0 l/m 0 min 0 min 283 W/m 11,3 km/h (2 Bft) 97,87 %
10.07.2018 16:20 18,8 C 18,9 C 17,8 C 77 % 1013,4 hPa 0,0 l/m 0 min 0 min 204 W/m 9,0 km/h (2 Bft) 97,87 %
10.07.2018 16:22 18,7 C 18,9 C 17,8 C 77 % 1013,4 hPa 0,0 l/m 0 min 0 min 208 W/m 9,0 km/h (2 Bft) 95,74 %
10.07.2018 16:24 18,8 C 18,9 C 17,8 C 77 % 1013,3 hPa 0,0 l/m 0 min 0 min 273 W/m 6,8 km/h (2 Bft) 95,65 %
10.07.2018 16:26 18,8 C 18,9 C 17,8 C 78 % 1013,3 hPa 0,0 l/m 0 min 0 min 301 W/m 6,8 km/h (2 Bft) 97,87 %
10.07.2018 16:28 18,8 C 18,9 C 17,8 C 77 % 1013,3 hPa 0,0 l/m 0 min 0 min 331 W/m 15,8 km/h (3 Bft) 95,74 %
10.07.2018 16:30 18,7 C 18,9 C 17,8 C 77 % 1013,2 hPa 0,0 l/m 0 min 0 min 336 W/m 15,8 km/h (3 Bft) 97,87 %
10.07.2018 16:32 18,7 C 19,4 C 17,8 C 77 % 1013,2 hPa 0,0 l/m 2 min 0 min 437 W/m 18,0 km/h (3 Bft) 95,74 %
10.07.2018 16:34 18,7 C 18,9 C 17,8 C 77 % 1013,1 hPa 0,0 l/m 2 min 0 min 400 W/m 11,3 km/h (2 Bft) 97,87 %
10.07.2018 16:36 18,7 C 18,9 C 17,8 C 77 % 1013,3 hPa 0,0 l/m 0 min 2 min 193 W/m 9,0 km/h (2 Bft) 98,11 %
10.07.2018 16:38 18,7 C 18,3 C 17,8 C 78 % 1013,2 hPa 0,0 l/m 0 min 0 min 153 W/m 9,0 km/h (2 Bft) 97,87 %
10.07.2018 16:40 18,7 C 18,3 C 17,8 C 78 % 1013,1 hPa 0,0 l/m 0 min 0 min 146 W/m 9,0 km/h (2 Bft) 97,87 %
10.07.2018 16:42 18,7 C 18,3 C 17,8 C 78 % 1013,1 hPa 0,0 l/m 0 min 0 min 213 W/m 13,5 km/h (3 Bft) 93,62 %
10.07.2018 16:44 18,6 C 18,3 C 17,2 C 78 % 1013,0 hPa 0,0 l/m 0 min 0 min 294 W/m 15,8 km/h (3 Bft) 95,65 %
10.07.2018 16:46 18,6 C 20,0 C 17,8 C 78 % 1013,1 hPa 0,0 l/m 0 min 0 min 302 W/m 11,3 km/h (2 Bft) 95,74 %
10.07.2018 16:48 18,7 C 20,0 C 18,3 C 79 % 1013,1 hPa 0,0 l/m 2 min 0 min 515 W/m 11,3 km/h (2 Bft) 95,74 %
10.07.2018 16:50 18,7 C 20,0 C 18,3 C 79 % 1013,1 hPa 0,0 l/m 2 min 0 min 365 W/m 20,3 km/h (4 Bft) 97,87 %
10.07.2018 16:52 18,8 C 19,4 C 18,3 C 79 % 1013,1 hPa 0,0 l/m 0 min 0 min 291 W/m 13,5 km/h (3 Bft) 97,92 %
10.07.2018 16:54 18,9 C 19,4 C 18,3 C 79 % 1013,0 hPa 0,0 l/m 0 min 0 min 312 W/m 15,8 km/h (3 Bft) 97,87 %
10.07.2018 16:56 18,9 C 19,4 C 18,3 C 79 % 1013,2 hPa 0,0 l/m 2 min 0 min 325 W/m 11,3 km/h (2 Bft) 97,83 %
10.07.2018 16:58 18,9 C 19,4 C 18,3 C 79 % 1013,1 hPa 0,0 l/m 0 min 0 min 291 W/m 15,8 km/h (3 Bft) 100,00 %
10.07.2018 17:00 18,9 C 18,9 C 18,3 C 79 % 1013,1 hPa 0,0 l/m 0 min 0 min 234 W/m 18,0 km/h (3 Bft) 100,00 %
10.07.2018 17:02 18,9 C 18,9 C 17,8 C 79 % 1013,2 hPa 0,0 l/m 0 min 0 min 201 W/m 15,8 km/h (3 Bft) 97,87 %
10.07.2018 17:04 18,9 C 18,9 C 17,8 C 79 % 1013,1 hPa 0,0 l/m 0 min 0 min 205 W/m 13,5 km/h (3 Bft) 95,74 %
10.07.2018 17:06 18,9 C 18,3 C 17,8 C 79 % 1013,1 hPa 0,0 l/m 0 min 0 min 175 W/m 15,8 km/h (3 Bft) 100,00 %
10.07.2018 17:08 18,9 C 18,3 C 17,8 C 79 % 1013,1 hPa 0,0 l/m 0 min 0 min 203 W/m 15,8 km/h (3 Bft) 100,00 %
10.07.2018 17:10 18,8 C 19,4 C 17,8 C 79 % 1013,1 hPa 0,0 l/m 0 min 0 min 225 W/m 15,8 km/h (3 Bft) 97,87 %
10.07.2018 17:12 18,8 C 19,4 C 17,8 C 80 % 1013,1 hPa 0,0 l/m 0 min 0 min 225 W/m 18,0 km/h (3 Bft) 95,74 %
10.07.2018 17:14 18,9 C 19,4 C 18,3 C 80 % 1013,1 hPa 0,0 l/m 0 min 0 min 225 W/m 11,3 km/h (2 Bft) 97,87 %
10.07.2018 17:16 18,9 C 20,0 C 18,3 C 80 % 1013,1 hPa 0,0 l/m 0 min 0 min 225 W/m 15,8 km/h (3 Bft) 97,87 %
10.07.2018 17:18 18,9 C 20,0 C 18,3 C 80 % 1013,0 hPa 0,0 l/m 2 min 0 min 441 W/m 18,0 km/h (3 Bft) 97,87 %
10.07.2018 17:20 19,0 C 20,6 C 18,3 C 80 % 1013,0 hPa 0,0 l/m 2 min 0 min 619 W/m 13,5 km/h (3 Bft) 97,83 %
10.07.2018 17:22 19,1 C 20,0 C 18,3 C 80 % 1012,9 hPa 0,0 l/m 2 min 0 min 679 W/m 11,3 km/h (2 Bft) 97,87 %
10.07.2018 17:24 19,1 C 19,4 C 18,3 C 80 % 1012,9 hPa 0,0 l/m 0 min 0 min 214 W/m 11,3 km/h (2 Bft) 95,74 %
10.07.2018 17:26 19,1 C 18,9 C 18,3 C 80 % 1012,8 hPa 0,0 l/m 0 min 0 min 235 W/m 11,3 km/h (2 Bft) 97,87 %
10.07.2018 17:28 19,1 C 18,9 C 17,8 C 80 % 1013,0 hPa 0,0 l/m 0 min 0 min 210 W/m 11,3 km/h (2 Bft) 97,87 %
10.07.2018 17:30 19,1 C 18,9 C 17,8 C 80 % 1013,0 hPa 0,0 l/m 0 min 0 min 206 W/m 11,3 km/h (2 Bft) 97,87 %
10.07.2018 17:32 19,1 C 18,3 C 17,8 C 80 % 1012,6 hPa 0,0 l/m 0 min 0 min 207 W/m 15,8 km/h (3 Bft) 97,83 %
10.07.2018 17:34 19,0 C 18,9 C 17,8 C 80 % 1012,6 hPa 0,0 l/m 0 min 0 min 156 W/m 11,3 km/h (2 Bft) 97,87 %
10.07.2018 17:36 19,0 C 18,3 C 17,8 C 81 % 1012,8 hPa 0,0 l/m 0 min 0 min 176 W/m 13,5 km/h (3 Bft) 97,92 %
10.07.2018 17:38 18,9 C 18,9 C 17,8 C 81 % 1012,7 hPa 0,0 l/m 2 min 0 min 322 W/m 13,5 km/h (3 Bft) 97,87 %
10.07.2018 17:40 18,9 C 18,9 C 17,8 C 81 % 1012,6 hPa 0,0 l/m 2 min 0 min 285 W/m 11,3 km/h (2 Bft) 95,74 %
10.07.2018 17:42 18,9 C 18,9 C 17,8 C 81 % 1012,7 hPa 0,0 l/m 0 min 0 min 234 W/m 15,8 km/h (3 Bft) 97,83 %
10.07.2018 17:44 18,9 C 18,9 C 17,8 C 81 % 1012,6 hPa 0,0 l/m 0 min 0 min 236 W/m 13,5 km/h (3 Bft) 95,74 %
10.07.2018 17:46 18,9 C 18,9 C 17,8 C 81 % 1012,6 hPa 0,0 l/m 0 min 0 min 253 W/m 9,0 km/h (2 Bft) 97,87 %
10.07.2018 17:48 18,9 C 18,9 C 17,8 C 81 % 1012,7 hPa 0,0 l/m 0 min 0 min 222 W/m 9,0 km/h (2 Bft) 95,74 %
10.07.2018 17:50 18,8 C 18,9 C 17,8 C 82 % 1012,7 hPa 0,0 l/m 2 min 0 min 274 W/m 11,3 km/h (2 Bft) 95,74 %
10.07.2018 17:52 18,8 C 18,9 C 17,8 C 82 % 1012,7 hPa 0,0 l/m 0 min 0 min 235 W/m 11,3 km/h (2 Bft) 93,62 %
10.07.2018 17:54 18,9 C 18,9 C 17,8 C 82 % 1012,8 hPa 0,0 l/m 0 min 0 min 138 W/m 11,3 km/h (2 Bft) 95,65 %
10.07.2018 17:56 18,8 C 18,3 C 17,8 C 82 % 1012,6 hPa 0,0 l/m 0 min 0 min 93 W/m 13,5 km/h (3 Bft) 93,62 %
10.07.2018 17:58 18,8 C 18,3 C 17,8 C 82 % 1012,8 hPa 0,0 l/m 0 min 2 min 75 W/m 9,0 km/h (2 Bft) 95,74 %
10.07.2018 18:00 18,8 C 18,3 C 17,8 C 82 % 1012,7 hPa 0,0 l/m 0 min 0 min 84 W/m 11,3 km/h (2 Bft) 95,74 %
10.07.2018 18:02 18,8 C 18,3 C 17,8 C 83 % 1012,6 hPa 0,0 l/m 0 min 0 min 90 W/m 11,3 km/h (2 Bft) 93,62 %
10.07.2018 18:04 18,8 C 17,8 C 17,8 C 83 % 1012,5 hPa 0,0 l/m 0 min 0 min 91 W/m 11,3 km/h (2 Bft) 95,74 %
10.07.2018 18:08 18,7 C 18,3 C 17,8 C 83 % 1012,5 hPa 0,0 l/m 0 min 4 min 124 W/m 9,0 km/h (2 Bft) 96,39 %
10.07.2018 18:10 18,7 C 18,3 C 17,8 C 84 % 1012,6 hPa 0,0 l/m 0 min 0 min 130 W/m 6,8 km/h (2 Bft) 97,87 %
10.07.2018 18:12 18,7 C 18,3 C 17,8 C 84 % 1012,4 hPa 0,0 l/m 0 min 0 min 144 W/m 9,0 km/h (2 Bft) 97,87 %
10.07.2018 18:14 18,6 C 18,3 C 17,8 C 84 % 1012,4 hPa 0,0 l/m 0 min 0 min 113 W/m 11,3 km/h (2 Bft) 97,87 %
10.07.2018 18:16 18,6 C 18,3 C 17,8 C 84 % 1012,5 hPa 0,0 l/m 0 min 0 min 86 W/m 6,8 km/h (2 Bft) 93,62 %
10.07.2018 18:18 18,6 C 18,3 C 17,8 C 84 % 1012,5 hPa 0,0 l/m 0 min 2 min 102 W/m 11,3 km/h (2 Bft) 97,87 %
10.07.2018 18:20 18,6 C 18,3 C 17,8 C 84 % 1012,5 hPa 0,0 l/m 0 min 0 min 69 W/m 9,0 km/h (2 Bft) 97,87 %
10.07.2018 18:22 18,6 C 17,8 C 17,8 C 84 % 1012,6 hPa 0,0 l/m 0 min 0 min 40 W/m 11,3 km/h (2 Bft) 98,28 %
10.07.2018 18:24 18,6 C 17,8 C 17,2 C 84 % 1012,5 hPa 0,0 l/m 0 min 0 min 36 W/m 11,3 km/h (2 Bft) 97,14 %
10.07.2018 18:26 18,6 C 17,2 C 17,2 C 84 % 1012,5 hPa 0,0 l/m 0 min 0 min 32 W/m 9,0 km/h (2 Bft) 97,87 %
10.07.2018 18:28 18,5 C 17,2 C 17,2 C 85 % 1012,5 hPa 0,0 l/m 0 min 0 min 91 W/m 6,8 km/h (2 Bft) 95,74 %
10.07.2018 18:30 18,5 C 17,8 C 17,2 C 85 % 1012,5 hPa 0,0 l/m 0 min 2 min 91 W/m 11,3 km/h (2 Bft) 97,87 %
10.07.2018 18:32 18,5 C 17,2 C 17,2 C 86 % 1012,4 hPa 0,0 l/m 0 min 2 min 62 W/m 9,0 km/h (2 Bft) 97,83 %
10.07.2018 18:34 18,5 C 17,2 C 17,2 C 86 % 1012,4 hPa 0,0 l/m 0 min 2 min 74 W/m 9,0 km/h (2 Bft) 97,87 %
10.07.2018 18:36 18,5 C 17,8 C 17,2 C 86 % 1012,4 hPa 0,0 l/m 0 min 0 min 100 W/m 11,3 km/h (2 Bft) 97,87 %
10.07.2018 18:38 18,5 C 17,8 C 17,2 C 86 % 1012,3 hPa 0,0 l/m 0 min 0 min 81 W/m 11,3 km/h (2 Bft) 97,87 %
10.07.2018 18:40 18,5 C 17,2 C 17,2 C 86 % 1012,3 hPa 0,0 l/m 0 min 2 min 70 W/m 18,0 km/h (3 Bft) 95,74 %
10.07.2018 18:42 18,4 C 17,2 C 17,2 C 87 % 1012,2 hPa 0,0 l/m 0 min 0 min 58 W/m 9,0 km/h (2 Bft) 95,74 %
10.07.2018 18:44 18,4 C 17,8 C 17,2 C 86 % 1012,2 hPa 0,0 l/m 0 min 0 min 57 W/m 11,3 km/h (2 Bft) 97,83 %
10.07.2018 18:46 18,4 C 17,8 C 17,2 C 87 % 1012,2 hPa 0,0 l/m 0 min 0 min 72 W/m 15,8 km/h (3 Bft) 97,87 %
10.07.2018 18:48 18,4 C 17,8 C 17,2 C 87 % 1012,2 hPa 0,0 l/m 0 min 0 min 110 W/m 11,3 km/h (2 Bft) 97,87 %
10.07.2018 18:50 18,4 C 18,3 C 17,8 C 87 % 1012,0 hPa 0,0 l/m 0 min 0 min 144 W/m 6,8 km/h (2 Bft) 94,92 %
10.07.2018 18:52 18,4 C 18,9 C 17,8 C 87 % 1011,9 hPa 0,0 l/m 2 min 0 min 502 W/m 2,3 km/h (1 Bft) 97,22 %
10.07.2018 18:54 18,5 C 19,4 C 18,3 C 88 % 1012,1 hPa 0,0 l/m 2 min 0 min 404 W/m 18,0 km/h (3 Bft) 97,87 %
10.07.2018 18:56 18,6 C 20,0 C 18,3 C 88 % 1012,0 hPa 0,0 l/m 2 min 0 min 552 W/m 11,3 km/h (2 Bft) 95,65 %
10.07.2018 18:58 18,7 C 20,0 C 18,9 C 88 % 1012,0 hPa 0,0 l/m 2 min 0 min 499 W/m 18,0 km/h (3 Bft) 97,87 %
10.07.2018 19:00 18,8 C 20,6 C 18,9 C 88 % 1012,1 hPa 0,0 l/m 2 min 0 min 496 W/m 15,8 km/h (3 Bft) 95,74 %
10.07.2018 19:02 18,9 C 20,6 C 18,9 C 87 % 1012,1 hPa 0,0 l/m 2 min 0 min 484 W/m 13,5 km/h (3 Bft) 97,87 %
10.07.2018 19:04 19,1 C 20,6 C 19,4 C 87 % 1012,0 hPa 0,0 l/m 2 min 0 min 477 W/m 11,3 km/h (2 Bft) 97,87 %
10.07.2018 19:06 19,2 C 20,6 C 18,9 C 86 % 1012,0 hPa 0,0 l/m 2 min 0 min 268 W/m 13,5 km/h (3 Bft) 97,87 %
10.07.2018 19:08 19,3 C 20,0 C 18,9 C 85 % 1012,0 hPa 0,0 l/m 0 min 0 min 116 W/m 9,0 km/h (2 Bft) 95,65 %
10.07.2018 19:10 19,4 C 20,0 C 18,9 C 84 % 1011,9 hPa 0,0 l/m 0 min 0 min 111 W/m 13,5 km/h (3 Bft) 97,87 %
10.07.2018 19:12 19,4 C 19,4 C 18,9 C 83 % 1011,9 hPa 0,0 l/m 0 min 0 min 126 W/m 13,5 km/h (3 Bft) 97,87 %
10.07.2018 19:14 19,4 C 19,4 C 18,9 C 83 % 1011,9 hPa 0,0 l/m 2 min 0 min 197 W/m 15,8 km/h (3 Bft) 97,87 %
10.07.2018 19:16 19,5 C 19,4 C 18,9 C 82 % 1012,0 hPa 0,0 l/m 0 min 0 min 116 W/m 13,5 km/h (3 Bft) 97,87 %
10.07.2018 19:18 19,6 C 19,4 C 18,9 C 82 % 1012,1 hPa 0,0 l/m 0 min 0 min 85 W/m 18,0 km/h (3 Bft) 97,87 %
10.07.2018 19:20 19,6 C 19,4 C 18,9 C 82 % 1012,0 hPa 0,0 l/m 0 min 0 min 53 W/m 11,3 km/h (2 Bft) 97,83 %
10.07.2018 19:22 19,6 C 19,4 C 18,9 C 81 % 1012,1 hPa 0,0 l/m 0 min 0 min 44 W/m 11,3 km/h (2 Bft) 97,87 %
10.07.2018 19:24 19,6 C 19,4 C 18,9 C 80 % 1012,1 hPa 0,0 l/m 0 min 0 min 47 W/m 11,3 km/h (2 Bft) 97,87 %
10.07.2018 19:26 19,6 C 19,4 C 18,3 C 80 % 1012,2 hPa 0,0 l/m 0 min 0 min 58 W/m 13,5 km/h (3 Bft) 100,00 %
10.07.2018 19:28 19,6 C 19,4 C 18,3 C 79 % 1012,2 hPa 0,0 l/m 0 min 0 min 82 W/m 13,5 km/h (3 Bft) 97,87 %
10.07.2018 19:30 19,6 C 19,4 C 18,9 C 78 % 1012,3 hPa 0,0 l/m 0 min 0 min 97 W/m 13,5 km/h (3 Bft) 100,00 %
10.07.2018 19:32 19,6 C 19,4 C 18,9 C 77 % 1012,3 hPa 0,0 l/m 0 min 0 min 100 W/m 18,0 km/h (3 Bft) 100,00 %
10.07.2018 19:34 19,5 C 19,4 C 18,9 C 75 % 1012,3 hPa 0,0 l/m 0 min 0 min 94 W/m 18,0 km/h (3 Bft) 100,00 %
10.07.2018 19:36 19,5 C 19,4 C 18,9 C 73 % 1012,3 hPa 0,0 l/m 0 min 0 min 97 W/m 18,0 km/h (3 Bft) 100,00 %
10.07.2018 19:38 19,5 C 19,4 C 18,9 C 70 % 1012,3 hPa 0,0 l/m 0 min 0 min 102 W/m 11,3 km/h (2 Bft) 97,87 %
10.07.2018 19:40 19,5 C 19,4 C 18,9 C 70 % 1012,3 hPa 0,0 l/m 0 min 0 min 102 W/m 15,8 km/h (3 Bft) 100,00 %
10.07.2018 19:42 19,5 C 19,4 C 18,9 C 69 % 1012,3 hPa 0,0 l/m 0 min 0 min 95 W/m 13,5 km/h (3 Bft) 100,00 %
10.07.2018 19:44 19,5 C 19,4 C 18,9 C 69 % 1012,3 hPa 0,0 l/m 0 min 0 min 72 W/m 6,8 km/h (2 Bft) 100,00 %
10.07.2018 19:46 19,5 C 19,4 C 18,3 C 69 % 1012,3 hPa 0,0 l/m 0 min 0 min 62 W/m 11,3 km/h (2 Bft) 100,00 %
10.07.2018 19:48 19,5 C 19,4 C 18,3 C 69 % 1012,4 hPa 0,0 l/m 0 min 0 min 65 W/m 20,3 km/h (4 Bft) 100,00 %
10.07.2018 19:50 19,5 C 19,4 C 18,3 C 68 % 1012,4 hPa 0,0 l/m 0 min 0 min 78 W/m 6,8 km/h (2 Bft) 100,00 %
10.07.2018 19:52 19,5 C 19,4 C 18,3 C 67 % 1012,5 hPa 0,0 l/m 0 min 0 min 81 W/m 11,3 km/h (2 Bft) 100,00 %
10.07.2018 19:54 19,5 C 19,4 C 18,3 C 67 % 1012,6 hPa 0,0 l/m 0 min 0 min 73 W/m 18,0 km/h (3 Bft) 100,00 %
10.07.2018 19:56 19,5 C 19,4 C 18,3 C 65 % 1012,5 hPa 0,0 l/m 0 min 0 min 69 W/m 15,8 km/h (3 Bft) 97,87 %
10.07.2018 19:58 19,5 C 19,4 C 18,3 C 65 % 1012,5 hPa 0,0 l/m 0 min 0 min 69 W/m 13,5 km/h (3 Bft) 100,00 %
10.07.2018 20:00 19,5 C 19,4 C 18,3 C 64 % 1012,5 hPa 0,0 l/m 0 min 0 min 73 W/m 22,5 km/h (4 Bft) 95,74 %
10.07.2018 20:02 19,5 C 19,4 C 18,3 C 64 % 1012,6 hPa 0,0 l/m 0 min 0 min 90 W/m 15,8 km/h (3 Bft) 95,74 %
10.07.2018 20:04 19,5 C 19,4 C 18,3 C 64 % 1012,6 hPa 0,0 l/m 2 min 0 min 112 W/m 11,3 km/h (2 Bft) 97,87 %
10.07.2018 20:06 19,5 C 19,4 C 18,3 C 64 % 1012,6 hPa 0,0 l/m 2 min 0 min 124 W/m 13,5 km/h (3 Bft) 95,65 %
10.07.2018 20:08 19,5 C 19,4 C 18,3 C 64 % 1012,6 hPa 0,0 l/m 2 min 0 min 124 W/m 20,3 km/h (4 Bft) 97,87 %
10.07.2018 20:10 19,4 C 19,4 C 18,3 C 63 % 1012,6 hPa 0,0 l/m 2 min 0 min 118 W/m 18,0 km/h (3 Bft) 97,87 %
10.07.2018 20:12 19,4 C 19,4 C 18,3 C 62 % 1012,6 hPa 0,0 l/m 2 min 0 min 106 W/m 15,8 km/h (3 Bft) 100,00 %
10.07.2018 20:14 19,4 C 19,4 C 18,3 C 62 % 1012,7 hPa 0,0 l/m 0 min 0 min 93 W/m 13,5 km/h (3 Bft) 100,00 %
10.07.2018 20:16 19,4 C 18,9 C 18,3 C 61 % 1012,7 hPa 0,0 l/m 0 min 0 min 84 W/m 22,5 km/h (4 Bft) 97,87 %
10.07.2018 20:18 19,4 C 18,9 C 18,3 C 60 % 1012,7 hPa 0,0 l/m 0 min 0 min 72 W/m 18,0 km/h (3 Bft) 97,83 %
10.07.2018 20:20 19,4 C 18,9 C 18,3 C 60 % 1012,7 hPa 0,0 l/m 0 min 0 min 68 W/m 18,0 km/h (3 Bft) 97,87 %
10.07.2018 20:22 19,4 C 18,9 C 18,3 C 60 % 1012,8 hPa 0,0 l/m 0 min 0 min 67 W/m 11,3 km/h (2 Bft) 97,87 %
10.07.2018 20:24 19,4 C 18,9 C 18,3 C 60 % 1012,7 hPa 0,0 l/m 0 min 0 min 67 W/m 11,3 km/h (2 Bft) 97,87 %
10.07.2018 20:26 19,4 C 18,9 C 18,3 C 60 % 1012,7 hPa 0,0 l/m 0 min 0 min 66 W/m 13,5 km/h (3 Bft) 97,87 %
10.07.2018 20:28 19,3 C 18,9 C 18,3 C 60 % 1012,7 hPa 0,0 l/m 0 min 0 min 65 W/m 11,3 km/h (2 Bft) 93,62 %
10.07.2018 20:30 19,3 C 18,9 C 18,3 C 60 % 1012,8 hPa 0,0 l/m 0 min 0 min 69 W/m 15,8 km/h (3 Bft) 97,83 %
10.07.2018 20:32 19,3 C 18,9 C 18,3 C 60 % 1012,8 hPa 0,0 l/m 0 min 0 min 70 W/m 15,8 km/h (3 Bft) 97,87 %
10.07.2018 20:34 19,3 C 18,9 C 18,3 C 60 % 1012,9 hPa 0,0 l/m 0 min 0 min 64 W/m 15,8 km/h (3 Bft) 97,87 %
10.07.2018 20:36 19,3 C 18,9 C 18,3 C 60 % 1012,8 hPa 0,0 l/m 0 min 0 min 55 W/m 11,3 km/h (2 Bft) 95,74 %
10.07.2018 20:38 19,3 C 18,9 C 18,3 C 60 % 1012,9 hPa 0,0 l/m 0 min 0 min 48 W/m 13,5 km/h (3 Bft) 97,87 %
10.07.2018 20:40 19,2 C 18,9 C 18,3 C 60 % 1012,9 hPa 0,0 l/m 0 min 0 min 45 W/m 11,3 km/h (2 Bft) 97,83 %
10.07.2018 20:42 19,2 C 18,9 C 18,3 C 60 % 1013,0 hPa 0,0 l/m 0 min 0 min 42 W/m 6,8 km/h (2 Bft) 95,74 %
10.07.2018 20:44 19,2 C 18,9 C 18,3 C 60 % 1013,0 hPa 0,0 l/m 0 min 0 min 40 W/m 15,8 km/h (3 Bft) 93,62 %
10.07.2018 20:46 19,2 C 18,3 C 18,3 C 60 % 1013,1 hPa 0,0 l/m 0 min 0 min 37 W/m 11,3 km/h (2 Bft) 97,87 %
10.07.2018 20:48 19,2 C 18,3 C 18,3 C 60 % 1013,0 hPa 0,0 l/m 0 min 0 min 34 W/m 15,8 km/h (3 Bft) 97,87 %
10.07.2018 20:50 19,2 C 18,3 C 17,8 C 60 % 1013,1 hPa 0,0 l/m 0 min 0 min 32 W/m 9,0 km/h (2 Bft) 97,87 %
10.07.2018 20:52 19,1 C 18,3 C 17,8 C 60 % 1013,1 hPa 0,0 l/m 0 min 0 min 32 W/m 15,8 km/h (3 Bft) 97,83 %
10.07.2018 20:54 19,1 C 18,3 C 17,8 C 59 % 1013,1 hPa 0,0 l/m 0 min 0 min 31 W/m 18,0 km/h (3 Bft) 97,87 %
10.07.2018 20:56 19,1 C 18,3 C 17,8 C 59 % 1013,0 hPa 0,0 l/m 0 min 0 min 30 W/m 9,0 km/h (2 Bft) 95,74 %
10.07.2018 20:58 19,1 C 18,3 C 17,8 C 59 % 1013,2 hPa 0,0 l/m 0 min 0 min 30 W/m 15,8 km/h (3 Bft) 95,74 %
10.07.2018 21:00 19,0 C 18,3 C 17,8 C 60 % 1013,1 hPa 0,0 l/m 0 min 0 min 30 W/m 9,0 km/h (2 Bft) 97,87 %
10.07.2018 21:02 19,0 C 18,3 C 17,8 C 60 % 1013,2 hPa 0,0 l/m 0 min 0 min 30 W/m 6,8 km/h (2 Bft) 95,74 %
10.07.2018 21:04 18,9 C 18,3 C 17,8 C 60 % 1013,2 hPa 0,0 l/m 0 min 0 min 30 W/m 18,0 km/h (3 Bft) 97,83 %
10.07.2018 21:06 18,9 C 18,3 C 17,8 C 60 % 1013,2 hPa 0,0 l/m 0 min 0 min 30 W/m 11,3 km/h (2 Bft) 95,74 %
10.07.2018 21:08 18,9 C 17,8 C 17,8 C 60 % 1013,2 hPa 0,0 l/m 0 min 0 min 30 W/m 13,5 km/h (3 Bft) 100,00 %
10.07.2018 21:10 18,9 C 17,8 C 17,8 C 61 % 1013,2 hPa 0,0 l/m 0 min 0 min 29 W/m 13,5 km/h (3 Bft) 97,87 %
10.07.2018 21:12 18,8 C 17,8 C 17,8 C 61 % 1013,2 hPa 0,0 l/m 0 min 0 min 28 W/m 20,3 km/h (4 Bft) 97,87 %
10.07.2018 21:14 18,8 C 17,8 C 17,8 C 61 % 1013,2 hPa 0,0 l/m 0 min 0 min 25 W/m 15,8 km/h (3 Bft) 97,87 %
10.07.2018 21:16 18,8 C 17,8 C 17,8 C 61 % 1013,3 hPa 0,0 l/m 0 min 0 min 21 W/m 13,5 km/h (3 Bft) 97,83 %
10.07.2018 21:18 18,8 C 17,8 C 17,8 C 61 % 1013,3 hPa 0,0 l/m 0 min 0 min 19 W/m 9,0 km/h (2 Bft) 93,62 %
10.07.2018 21:20 18,8 C 17,8 C 17,2 C 61 % 1013,3 hPa 0,0 l/m 0 min 0 min 18 W/m 13,5 km/h (3 Bft) 95,74 %
10.07.2018 21:22 18,7 C 17,8 C 17,2 C 62 % 1013,3 hPa 0,0 l/m 0 min 0 min 17 W/m 13,5 km/h (3 Bft) 95,74 %
10.07.2018 21:24 18,7 C 17,8 C 17,2 C 62 % 1013,3 hPa 0,0 l/m 0 min 0 min 16 W/m 9,0 km/h (2 Bft) 95,74 %
10.07.2018 21:26 18,6 C 17,2 C 17,2 C 62 % 1013,3 hPa 0,0 l/m 0 min 0 min 14 W/m 9,0 km/h (2 Bft) 97,62 %
10.07.2018 21:28 18,6 C 17,2 C 17,2 C 62 % 1013,3 hPa 0,0 l/m 0 min 0 min 14 W/m 15,8 km/h (3 Bft) 95,74 %
10.07.2018 21:30 18,6 C 17,2 C 17,2 C 62 % 1013,3 hPa 0,0 l/m 0 min 0 min 14 W/m 6,8 km/h (2 Bft) 93,48 %
10.07.2018 21:32 18,5 C 17,2 C 17,2 C 62 % 1013,3 hPa 0,0 l/m 0 min 0 min 15 W/m 13,5 km/h (3 Bft) 93,62 %
10.07.2018 21:34 18,5 C 17,2 C 17,2 C 63 % 1013,3 hPa 0,0 l/m 0 min 0 min 16 W/m 9,0 km/h (2 Bft) 95,74 %
10.07.2018 21:36 18,4 C 17,2 C 17,2 C 63 % 1013,4 hPa 0,0 l/m 0 min 0 min 16 W/m 13,5 km/h (3 Bft) 95,74 %
10.07.2018 21:38 18,4 C 17,2 C 17,2 C 63 % 1013,3 hPa 0,0 l/m 0 min 0 min 16 W/m 9,0 km/h (2 Bft) 95,74 %
10.07.2018 21:40 18,4 C 17,2 C 17,2 C 63 % 1013,4 hPa 0,0 l/m 0 min 0 min 13 W/m 15,8 km/h (3 Bft) 91,49 %
10.07.2018 21:42 18,3 C 17,8 C 17,2 C 63 % 1013,4 hPa 0,0 l/m 0 min 0 min 12 W/m 9,0 km/h (2 Bft) 95,65 %
10.07.2018 21:44 18,3 C 17,8 C 17,2 C 63 % 1013,3 hPa 0,0 l/m 0 min 0 min 10 W/m 13,5 km/h (3 Bft) 95,74 %
10.07.2018 21:46 18,3 C 17,2 C 17,2 C 63 % 1013,4 hPa 0,0 l/m 0 min 0 min 8 W/m 9,0 km/h (2 Bft) 95,74 %
10.07.2018 21:48 18,3 C 17,2 C 17,2 C 64 % 1013,4 hPa 0,0 l/m 0 min 0 min 6 W/m 11,3 km/h (2 Bft) 95,74 %
10.07.2018 21:50 18,2 C 17,2 C 17,2 C 63 % 1013,5 hPa 0,0 l/m 0 min 0 min 5 W/m 15,8 km/h (3 Bft) 93,62 %
10.07.2018 21:52 18,2 C 17,2 C 17,2 C 64 % 1013,5 hPa 0,0 l/m 0 min 0 min 3 W/m 18,0 km/h (3 Bft) 93,62 %
10.07.2018 21:54 18,2 C 17,2 C 17,2 C 64 % 1013,6 hPa 0,0 l/m 0 min 0 min 0 W/m 15,8 km/h (3 Bft) 95,65 %
10.07.2018 21:56 18,2 C 17,2 C 17,2 C 64 % 1013,6 hPa 0,0 l/m 0 min 0 min 0 W/m 11,3 km/h (2 Bft) 95,74 %
10.07.2018 21:58 18,2 C 17,2 C 17,2 C 64 % 1013,5 hPa 0,0 l/m 0 min 0 min 0 W/m 11,3 km/h (2 Bft) 95,74 %
10.07.2018 22:00 18,2 C 17,8 C 17,2 C 64 % 1013,6 hPa 0,0 l/m 0 min 0 min 0 W/m 15,8 km/h (3 Bft) 95,74 %
10.07.2018 22:02 18,2 C 17,8 C 17,2 C 64 % 1013,7 hPa 0,0 l/m 0 min 0 min 0 W/m 6,8 km/h (2 Bft) 93,62 %
10.07.2018 22:04 18,2 C 17,8 C 17,2 C 64 % 1013,6 hPa 0,0 l/m 0 min 0 min 0 W/m 15,8 km/h (3 Bft) 93,62 %
10.07.2018 22:06 18,2 C 17,8 C 17,2 C 64 % 1013,7 hPa 0,0 l/m 0 min 0 min 0 W/m 11,3 km/h (2 Bft) 97,83 %
10.07.2018 22:08 18,2 C 17,8 C 17,2 C 64 % 1013,6 hPa 0,0 l/m 0 min 0 min 0 W/m 15,8 km/h (3 Bft) 97,87 %
10.07.2018 22:10 18,1 C 17,8 C 17,2 C 64 % 1013,7 hPa 0,0 l/m 0 min 0 min 0 W/m 11,3 km/h (2 Bft) 95,74 %
10.07.2018 22:12 18,1 C 17,8 C 17,2 C 65 % 1013,7 hPa 0,0 l/m 0 min 0 min 0 W/m 13,5 km/h (3 Bft) 100,00 %
10.07.2018 22:14 18,1 C 17,8 C 17,2 C 65 % 1013,8 hPa 0,0 l/m 0 min 0 min 0 W/m 11,3 km/h (2 Bft) 97,87 %
10.07.2018 22:16 18,1 C 17,8 C 17,2 C 65 % 1013,8 hPa 0,0 l/m 0 min 0 min 0 W/m 9,0 km/h (2 Bft) 97,87 %
10.07.2018 22:18 18,1 C 17,2 C 17,2 C 65 % 1013,9 hPa 0,0 l/m 0 min 0 min 0 W/m 9,0 km/h (2 Bft) 100,00 %
10.07.2018 22:20 18,1 C 17,2 C 17,2 C 65 % 1013,9 hPa 0,0 l/m 0 min 0 min 0 W/m 11,3 km/h (2 Bft) 97,87 %
10.07.2018 22:22 18,1 C 17,2 C 17,2 C 65 % 1014,0 hPa 0,0 l/m 0 min 0 min 0 W/m 15,8 km/h (3 Bft) 100,00 %
10.07.2018 22:24 18,1 C 17,2 C 17,2 C 65 % 1014,0 hPa 0,0 l/m 0 min 0 min 0 W/m 18,0 km/h (3 Bft) 97,87 %
10.07.2018 22:26 18,1 C 17,2 C 17,2 C 65 % 1014,0 hPa 0,0 l/m 0 min 0 min 0 W/m 11,3 km/h (2 Bft) 100,00 %
10.07.2018 22:28 18,1 C 17,2 C 17,2 C 65 % 1014,0 hPa 0,0 l/m 0 min 0 min 0 W/m 6,8 km/h (2 Bft) 100,00 %
10.07.2018 22:30 18,1 C 17,2 C 16,7 C 65 % 1014,0 hPa 0,0 l/m 0 min 0 min 0 W/m 9,0 km/h (2 Bft) 100,00 %
10.07.2018 22:32 18,0 C 17,2 C 16,7 C 65 % 1013,9 hPa 0,0 l/m 0 min 0 min 0 W/m 11,3 km/h (2 Bft) 100,00 %
10.07.2018 22:34 18,0 C 16,7 C 16,7 C 65 % 1013,9 hPa 0,0 l/m 0 min 0 min 0 W/m 13,5 km/h (3 Bft) 97,87 %
10.07.2018 22:36 18,0 C 16,7 C 16,7 C 65 % 1014,0 hPa 0,0 l/m 0 min 0 min 0 W/m 6,8 km/h (2 Bft) 100,00 %
10.07.2018 22:38 17,9 C 16,7 C 16,7 C 65 % 1014,0 hPa 0,0 l/m 0 min 0 min 0 W/m 9,0 km/h (2 Bft) 97,87 %
10.07.2018 22:40 17,9 C 16,7 C 16,7 C 65 % 1014,0 hPa 0,0 l/m 0 min 0 min 0 W/m 11,3 km/h (2 Bft) 100,00 %
10.07.2018 22:42 17,9 C 16,7 C 16,7 C 65 % 1014,0 hPa 0,0 l/m 0 min 0 min 0 W/m 6,8 km/h (2 Bft) 100,00 %
10.07.2018 22:44 17,8 C 16,7 C 16,7 C 65 % 1014,0 hPa 0,0 l/m 0 min 0 min 0 W/m 15,8 km/h (3 Bft) 100,00 %
10.07.2018 22:46 17,8 C 16,7 C 16,7 C 65 % 1014,0 hPa 0,0 l/m 0 min 0 min 0 W/m 13,5 km/h (3 Bft) 100,00 %
10.07.2018 22:48 17,8 C 16,7 C 16,7 C 65 % 1014,1 hPa 0,0 l/m 0 min 0 min 0 W/m 11,3 km/h (2 Bft) 100,00 %
10.07.2018 22:50 17,7 C 16,7 C 16,7 C 65 % 1014,1 hPa 0,0 l/m 0 min 0 min 0 W/m 11,3 km/h (2 Bft) 100,00 %
10.07.2018 22:52 17,7 C 16,7 C 16,7 C 65 % 1014,2 hPa 0,0 l/m 0 min 0 min 0 W/m 4,5 km/h (1 Bft) 100,00 %
10.07.2018 22:54 17,7 C 16,7 C 16,7 C 65 % 1014,2 hPa 0,0 l/m 0 min 0 min 0 W/m 9,0 km/h (2 Bft) 97,87 %
10.07.2018 22:56 17,7 C 16,7 C 16,7 C 65 % 1014,2 hPa 0,0 l/m 0 min 0 min 0 W/m 9,0 km/h (2 Bft) 100,00 %
10.07.2018 22:58 17,6 C 16,7 C 16,7 C 65 % 1014,2 hPa 0,0 l/m 0 min 0 min 0 W/m 9,0 km/h (2 Bft) 100,00 %
10.07.2018 23:00 17,6 C 16,7 C 16,7 C 65 % 1014,2 hPa 0,0 l/m 0 min 0 min 0 W/m 6,8 km/h (2 Bft) 97,87 %
10.07.2018 23:02 17,6 C 16,7 C 16,7 C 65 % 1014,3 hPa 0,0 l/m 0 min 0 min 0 W/m 6,8 km/h (2 Bft) 97,87 %
10.07.2018 23:04 17,5 C 16,1 C 16,1 C 65 % 1014,3 hPa 0,0 l/m 0 min 0 min 0 W/m 9,0 km/h (2 Bft) 97,83 %
10.07.2018 23:06 17,5 C 16,1 C 16,1 C 65 % 1014,3 hPa 0,0 l/m 0 min 0 min 0 W/m 11,3 km/h (2 Bft) 100,00 %
10.07.2018 23:08 17,4 C 16,1 C 16,1 C 65 % 1014,3 hPa 0,0 l/m 0 min 0 min 0 W/m 11,3 km/h (2 Bft) 97,87 %
10.07.2018 23:10 17,4 C 16,1 C 16,1 C 65 % 1014,3 hPa 0,0 l/m 0 min 0 min 0 W/m 9,0 km/h (2 Bft) 100,00 %
10.07.2018 23:12 17,4 C 16,1 C 16,1 C 65 % 1014,3 hPa 0,0 l/m 0 min 0 min 0 W/m 9,0 km/h (2 Bft) 97,87 %
10.07.2018 23:14 17,3 C 16,1 C 16,1 C 66 % 1014,3 hPa 0,0 l/m 0 min 0 min 0 W/m 9,0 km/h (2 Bft) 100,00 %
10.07.2018 23:16 17,3 C 16,1 C 16,1 C 66 % 1014,3 hPa 0,0 l/m 0 min 0 min 0 W/m 11,3 km/h (2 Bft) 100,00 %
10.07.2018 23:18 17,3 C 16,1 C 16,1 C 66 % 1014,3 hPa 0,0 l/m 0 min 0 min 0 W/m 6,8 km/h (2 Bft) 97,87 %
10.07.2018 23:20 17,2 C 16,1 C 16,1 C 66 % 1014,3 hPa 0,0 l/m 0 min 0 min 0 W/m 4,5 km/h (1 Bft) 93,62 %
10.07.2018 23:22 17,2 C 16,1 C 16,1 C 66 % 1014,3 hPa 0,0 l/m 0 min 0 min 0 W/m 11,3 km/h (2 Bft) 97,87 %
10.07.2018 23:24 17,2 C 16,1 C 16,1 C 66 % 1014,4 hPa 0,0 l/m 0 min 0 min 0 W/m 6,8 km/h (2 Bft) 95,74 %
10.07.2018 23:26 17,2 C 16,1 C 16,1 C 67 % 1014,4 hPa 0,0 l/m 0 min 0 min 0 W/m 4,5 km/h (1 Bft) 97,87 %
10.07.2018 23:28 17,1 C 16,1 C 16,1 C 67 % 1014,4 hPa 0,0 l/m 0 min 0 min 0 W/m 4,5 km/h (1 Bft) 95,65 %
10.07.2018 23:30 17,1 C 16,1 C 16,1 C 67 % 1014,4 hPa 0,0 l/m 0 min 0 min 0 W/m 11,3 km/h (2 Bft) 97,87 %
10.07.2018 23:32 17,1 C 16,1 C 16,1 C 67 % 1014,4 hPa 0,0 l/m 0 min 0 min 0 W/m 9,0 km/h (2 Bft) 97,87 %
10.07.2018 23:34 17,0 C 16,1 C 16,1 C 67 % 1014,4 hPa 0,0 l/m 0 min 0 min 0 W/m 6,8 km/h (2 Bft) 97,87 %
10.07.2018 23:36 17,0 C 15,6 C 16,1 C 67 % 1014,4 hPa 0,0 l/m 0 min 0 min 0 W/m 4,5 km/h (1 Bft) 96,23 %
10.07.2018 23:38 16,9 C 15,6 C 16,1 C 67 % 1014,5 hPa 0,0 l/m 0 min 0 min 0 W/m 4,5 km/h (1 Bft) 95,74 %
10.07.2018 23:40 16,9 C 15,6 C 15,6 C 68 % 1014,4 hPa 0,0 l/m 0 min 0 min 0 W/m 6,8 km/h (2 Bft) 97,87 %
10.07.2018 23:42 16,9 C 15,6 C 15,6 C 68 % 1014,4 hPa 0,0 l/m 0 min 0 min 0 W/m 4,5 km/h (1 Bft) 97,87 %
10.07.2018 23:44 16,9 C 15,6 C 15,6 C 68 % 1014,5 hPa 0,0 l/m 0 min 0 min 0 W/m 4,5 km/h (1 Bft) 97,87 %
10.07.2018 23:46 16,8 C 15,6 C 15,6 C 68 % 1014,5 hPa 0,0 l/m 0 min 0 min 0 W/m 6,8 km/h (2 Bft) 97,87 %
10.07.2018 23:48 16,8 C 15,6 C 15,6 C 68 % 1014,5 hPa 0,0 l/m 0 min 0 min 0 W/m 6,8 km/h (2 Bft) 97,83 %
10.07.2018 23:50 16,8 C 15,0 C 15,6 C 69 % 1014,5 hPa 0,0 l/m 0 min 0 min 0 W/m 2,3 km/h (1 Bft) 97,87 %
10.07.2018 23:52 16,7 C 15,0 C 15,0 C 69 % 1014,6 hPa 0,0 l/m 0 min 0 min 0 W/m 2,3 km/h (1 Bft) 93,75 %
10.07.2018 23:54 16,7 C 15,0 C 15,0 C 69 % 1014,6 hPa 0,0 l/m 0 min 0 min 0 W/m 4,5 km/h (1 Bft) 97,87 %
10.07.2018 23:56 16,7 C 15,0 C 15,0 C 69 % 1014,6 hPa 0,0 l/m 0 min 0 min 0 W/m 4,5 km/h (1 Bft) 97,87 %
10.07.2018 23:58 16,6 C 15,0 C 15,0 C 69 % 1014,7 hPa 0,0 l/m 0 min 0 min 0 W/m 6,8 km/h (2 Bft) 97,87 %
_ Min-Zeit 04:56 04:12 04:08 20:54 18:52 - - - - 06:20 08:42
Minimum _ 13,9 C 13,3 C 13,3 C 59 % 1011,9 hPa - - - - 0,0 km/h (0 Bft) 89,36 %
_ Max-Zeit 19:18 17:20 19:04 18:54 00:00 00:00 08:22 18:08 14:50 02:12 00:02
Maximum _ 19,6 C 20,6 C 19,4 C 88 % 1018,3 hPa 0,0 l/m 2 min 4 min 905 W/m 22,5 km/h
NW (4 Bft)
100,00 %
Durchschnitt _ 16,8 C 16,6 C 16,0 C 76 % 1015,4 hPa #0,0 l/m #2:04 h #1:00 h 168 W/m 11,2 km/h (2 Bft) 97,43 %
© 2018 W. Hausmann